FW7377 Weather Reports


time (UTC)temp
C
wind
direction
speed
KPH
gust
KPH
rain 1hr
cm
rain 24hr
cm
rain mn
cm
humidity
%
barometer
mb
20260906104404 31 135 3.2 6.4 0.00 0.00 0.00 54 1021.5
20260906104303 31 45 8.0 9.7 0.00 0.00 0.00 54 1021.4
20260906104204 31 45 4.8 9.7 0.00 0.00 0.00 54 1021.5
20260906104104 31 112 3.2 6.4 0.00 0.00 0.00 54 1021.3
20260906104004 31 68 4.8 9.7 0.00 0.00 0.00 54 1021.6
20260906103904 31 68 4.8 9.7 0.00 0.00 0.00 54 1021.5
20260906103804 30 45 6.4 9.7 0.00 0.00 0.00 54 1021.5
20260906103704 30 45 9.7 12.9 0.00 0.00 0.00 54 1021.3
20260906103604 31 90 6.4 11.3 0.00 0.00 0.00 55 1021.5
20260906103504 30 90 6.4 11.3 0.00 0.00 0.00 55 1021.5
20260906103404 30 68 8.0 11.3 0.00 0.00 0.00 55 1021.4
20260906103304 30 90 9.7 14.5 0.00 0.00 0.00 54 1021.5
20260906103203 30 68 3.2 9.7 0.00 0.00 0.00 55 1021.7
20260906103104 30 112 6.4 9.7 0.00 0.00 0.00 54 1021.3
20260906103004 30 112 8.0 12.9 0.00 0.00 0.00 55 1021.5
20260906102904 30 112 3.2 6.4 0.00 0.00 0.00 55 1021.4
20260906102804 30 112 6.4 11.3 0.00 0.00 0.00 55 1021.5
20260906102704 30 45 4.8 6.4 0.00 0.00 0.00 55 1021.3
20260906102603 30 45 6.4 11.3 0.00 0.00 0.00 55 1021.6
20260906102503 30 90 3.2 6.4 0.00 0.00 0.00 56 1021.5
20260906102403 30 90 3.2 6.4 0.00 0.00 0.00 56 1021.5
20260906102306 30 68 6.4 9.7 0.00 0.00 0.00 55 1021.7
20260906102204 30 90 8.0 11.3 0.00 0.00 0.00 55 1021.5
20260906102104 30 68 6.4 9.7 0.00 0.00 0.00 55 1021.6
20260906102004 30 68 8.0 12.9 0.00 0.00 0.00 55 1021.8
20260906101904 30 68 6.4 11.3 0.00 0.00 0.00 55 1021.6
20260906101804 30 135 4.8 9.7 0.00 0.00 0.00 56 1021.9
20260906101704 30 68 4.8 9.7 0.00 0.00 0.00 55 1021.8
20260906101605 30 68 8.0 12.9 0.00 0.00 0.00 55 1021.6
20260906101504 30 112 6.4 6.4 0.00 0.00 0.00 55 1021.6
20260906101405 30 112 6.4 6.4 0.00 0.00 0.00 55 1021.5
20260906101304 30 68 3.2 6.4 0.00 0.00 0.00 55 1021.6
20260906101204 30 68 3.2 6.4 0.00 0.00 0.00 55 1021.6
20260906101104 30 112 6.4 9.7 0.00 0.00 0.00 55 1021.6
20260906101004 30 68 4.8 11.3 0.00 0.00 0.00 55 1021.7
20260906100904 30 68 6.4 9.7 0.00 0.00 0.00 55 1021.7
20260906100804 30 68 6.4 9.7 0.00 0.00 0.00 54 1021.8
20260906100703 30 22 4.8 9.7 0.00 0.00 0.00 55 1021.8
20260906100603 30 22 4.8 6.4 0.00 0.00 0.00 55 1021.9
20260906100504 30 112 4.8 6.4 0.00 0.00 0.00 55 1021.6
20260906100404 30 90 4.8 9.7 0.00 0.00 0.00 55 1021.7
20260906100304 30 158 6.4 9.7 0.00 0.00 0.00 53 1021.6
20260906100203 30 270 6.4 6.4 0.00 0.00 0.00 53 1021.9
20260906100103 30 135 4.8 6.4 0.00 0.00 0.00 54 1021.6
20260906100003 30 45 4.8 6.4 0.00 0.00 0.00 55 1021.7
20260906095903 30 45 6.4 11.3 0.00 0.00 0.00 55 1022.0
20260906095804 30 112 8.0 11.3 0.00 0.00 0.00 55 1021.8
20260906095703 30 112 4.8 9.7 0.00 0.00 0.00 55 1021.7
20260906095603 30 90 6.4 9.7 0.00 0.00 0.00 55 1021.9
20260906095503 30 112 3.2 6.4 0.00 0.00 0.00 55 1021.8
20260906095403 30 112 4.8 6.4 0.00 0.00 0.00 55 1021.8
20260906095306 30 135 8.0 11.3 0.00 0.00 0.00 55 1021.8
20260906095204 30 90 4.8 12.9 0.00 0.00 0.00 55 1021.8
20260906095104 30 68 4.8 11.3 0.00 0.00 0.00 55 1022.1
20260906095004 30 90 3.2 3.2 0.00 0.00 0.00 55 1021.9
20260906094904 30 158 3.2 6.4 0.00 0.00 0.00 55 1021.8
20260906094804 30 90 4.8 6.4 0.00 0.00 0.00 55 1021.9
20260906094704 30 90 3.2 6.4 0.00 0.00 0.00 55 1021.9
20260906094604 30 45 3.2 9.7 0.00 0.00 0.00 55 1022.0
20260906094504 29 90 8.0 14.5 0.00 0.00 0.00 54 1021.9
20260906094404 29 90 8.0 14.5 0.00 0.00 0.00 55 1021.8
20260906094304 29 68 8.0 12.9 0.00 0.00 0.00 56 1022.1
20260906094204 30 45 6.4 9.7 0.00 0.00 0.00 58 1022.0
20260906094104 29 202 3.2 6.4 0.00 0.00 0.00 57 1021.7
20260906094004 29 135 4.8 14.5 0.00 0.00 0.00 57 1021.7
20260906093903 29 68 6.4 11.3 0.00 0.00 0.00 56 1021.9
20260906093804 29 90 11.3 14.5 0.00 0.00 0.00 56 1021.9
20260906093703 29 45 9.7 14.5 0.00 0.00 0.00 56 1021.8
20260906093604 29 90 4.8 9.7 0.00 0.00 0.00 56 1022.0
20260906093503 29 45 6.4 11.3 0.00 0.00 0.00 56 1022.0
20260906093403 29 90 6.4 11.3 0.00 0.00 0.00 56 1021.9
20260906093303 29 68 6.4 11.3 0.00 0.00 0.00 56 1022.0
20260906093204 29 45 8.0 12.9 0.00 0.00 0.00 56 1021.9
20260906093104 29 90 12.9 17.7 0.00 0.00 0.00 57 1022.1
20260906093005 29 45 4.8 11.3 0.00 0.00 0.00 60 1021.9
20260906092904 29 45 6.4 9.7 0.00 0.00 0.00 60 1022.0
20260906092803 29 45 8.0 12.9 0.00 0.00 0.00 60 1022.0
20260906092704 29 90 9.7 14.5 0.00 0.00 0.00 60 1021.8
20260906092604 29 68 6.4 12.9 0.00 0.00 0.00 60 1022.0
20260906092504 29 90 3.2 6.4 0.00 0.00 0.00 60 1022.0
20260906092405 29 68 6.4 6.4 0.00 0.00 0.00 60 1022.0
20260906092306 28 45 6.4 9.7 0.00 0.00 0.00 60 1022.0
20260906092204 29 45 4.8 6.4 0.00 0.00 0.00 62 1022.0
20260906092104 28 68 3.2 6.4 0.00 0.00 0.00 62 1022.1
20260906092004 28 135 4.8 6.4 0.00 0.00 0.00 62 1021.8
20260906091903 28 68 4.8 9.7 0.00 0.00 0.00 60 1021.9
20260906091803 28 68 8.0 11.3 0.00 0.00 0.00 60 1022.1
20260906091704 28 90 8.0 11.3 0.00 0.00 0.00 61 1022.0
20260906091604 28 90 6.4 12.9 0.00 0.00 0.00 60 1022.0
20260906091503 28 90 9.7 12.9 0.00 0.00 0.00 60 1021.9
20260906091404 28 90 8.0 11.3 0.00 0.00 0.00 60 1021.8
20260906091304 28 68 4.8 11.3 0.00 0.00 0.00 60 1021.9
20260906091204 28 112 6.4 9.7 0.00 0.00 0.00 60 1022.0
20260906091104 28 68 11.3 20.9 0.00 0.00 0.00 60 1021.9
20260906091004 29 90 9.7 14.5 0.00 0.00 0.00 59 1021.9
20260906090904 29 90 4.8 9.7 0.00 0.00 0.00 59 1022.0
20260906090804 28 45 6.4 11.3 0.00 0.00 0.00 59 1021.9
20260906090704 28 22 8.0 12.9 0.00 0.00 0.00 59 1022.0
20260906090604 28 90 6.4 11.3 0.00 0.00 0.00 59 1021.9
20260906090504 28 68 9.7 17.7 0.00 0.00 0.00 60 1021.9
20260906090404 28 90 3.2 6.4 0.00 0.00 0.00 60 1021.7
20260906090304 28 45 4.8 6.4 0.00 0.00 0.00 60 1021.9
20260906090204 28 68 6.4 9.7 0.00 0.00 0.00 60 1022.0
20260906090103 28 45 3.2 6.4 0.00 0.00 0.00 61 1022.1
20260906090004 28 68 3.2 6.4 0.00 0.00 0.00 62 1022.1
20260906085904 28 112 6.4 11.3 0.00 0.00 0.00 62 1021.7
20260906085803 28 68 6.4 12.9 0.00 0.00 0.00 61 1022.1
20260906085704 28 68 6.4 9.7 0.00 0.00 0.00 61 1022.1
20260906085604 28 68 3.2 6.4 0.00 0.00 0.00 62 1021.8
20260906085504 28 68 3.2 6.4 0.00 0.00 0.00 61 1022.1
20260906085404 28 68 4.8 6.4 0.00 0.00 0.00 62 1021.8
20260906085306 28 68 6.4 9.7 0.00 0.00 0.00 62 1021.8
20260906085204 28 0 3.2 6.4 0.00 0.00 0.00 63 1022.1
20260906085105 28 90 4.8 6.4 0.00 0.00 0.00 63 1021.8
20260906085004 28 90 6.4 11.3 0.00 0.00 0.00 64 1021.8
20260906084905 28 112 6.4 9.7 0.00 0.00 0.00 64 1022.0
20260906084804 28 68 4.8 11.3 0.00 0.00 0.00 65 1021.7
20260906084704 28 45 6.4 11.3 0.00 0.00 0.00 64 1021.8
20260906084605 28 68 6.4 9.7 0.00 0.00 0.00 64 1022.1
20260906084504 28 68 6.4 9.7 0.00 0.00 0.00 64 1022.0
20260906084404 28 45 3.2 6.4 0.00 0.00 0.00 64 1021.9
20260906084304 28 68 3.2 6.4 0.00 0.00 0.00 65 1021.8
20260906084204 28 112 4.8 6.4 0.00 0.00 0.00 65 1022.0
20260906084104 28 90 3.2 3.2 0.00 0.00 0.00 65 1021.9
20260906084003 27 135 3.2 3.2 0.00 0.00 0.00 65 1021.9
20260906083903 27 45 4.8 6.4 0.00 0.00 0.00 66 1022.0
20260906083804 27 45 3.2 6.4 0.00 0.00 0.00 67 1022.1
20260906083704 27 68 3.2 6.4 0.00 0.00 0.00 67 1022.0
20260906083604 27 45 4.8 6.4 0.00 0.00 0.00 67 1021.9
20260906083504 27 45 4.8 6.4 0.00 0.00 0.00 68 1021.8
20260906083404 27 90 6.4 6.4 0.00 0.00 0.00 68 1021.9
20260906083303 27 68 8.0 11.3 0.00 0.00 0.00 68 1022.0
20260906083203 27 45 3.2 6.4 0.00 0.00 0.00 67 1021.9
20260906083103 27 68 6.4 6.4 0.00 0.00 0.00 68 1021.8
20260906083004 27 112 3.2 6.4 0.00 0.00 0.00 68 1022.1
20260906082903 27 112 1.6 3.2 0.00 0.00 0.00 68 1021.9
20260906082804 27 90 3.2 3.2 0.00 0.00 0.00 69 1021.7
20260906082703 27 45 3.2 6.4 0.00 0.00 0.00 69 1021.8
20260906082603 27 90 1.6 3.2 0.00 0.00 0.00 69 1022.0
20260906082503 27 68 3.2 6.4 0.00 0.00 0.00 69 1021.7
20260906082404 27 68 3.2 3.2 0.00 0.00 0.00 69 1021.8
20260906082306 26 45 4.8 6.4 0.00 0.00 0.00 70 1022.1
20260906082204 26 45 4.8 6.4 0.00 0.00 0.00 70 1021.7
20260906082104 26 45 6.4 9.7 0.00 0.00 0.00 70 1021.9
20260906082004 26 45 4.8 6.4 0.00 0.00 0.00 70 1022.1
20260906081904 26 68 6.4 9.7 0.00 0.00 0.00 70 1022.0
20260906081803 26 68 6.4 11.3 0.00 0.00 0.00 70 1021.8
20260906081704 26 68 6.4 6.4 0.00 0.00 0.00 71 1021.9
20260906081604 26 68 3.2 6.4 0.00 0.00 0.00 71 1021.9
20260906081504 26 90 3.2 3.2 0.00 0.00 0.00 72 1022.0
20260906081404 26 90 3.2 3.2 0.00 0.00 0.00 72 1022.0
20260906081304 26 135 4.8 6.4 0.00 0.00 0.00 72 1021.8
20260906081204 26 158 4.8 6.4 0.00 0.00 0.00 72 1021.9
20260906081103 26 158 1.6 3.2 0.00 0.00 0.00 71 1022.0
20260906081004 26 45 4.8 6.4 0.00 0.00 0.00 71 1021.9
20260906080903 26 68 6.4 6.4 0.00 0.00 0.00 71 1022.0
20260906080803 26 68 6.4 6.4 0.00 0.00 0.00 71 1021.9
20260906080704 26 45 3.2 6.4 0.00 0.00 0.00 72 1022.0
20260906080604 26 135 3.2 3.2 0.00 0.00 0.00 72 1022.0
20260906080503 26 180 1.6 3.2 0.00 0.00 0.00 72 1022.0
20260906080403 26 112 3.2 3.2 0.00 0.00 0.00 72 1022.0
20260906080303 26 90 1.6 3.2 0.00 0.00 0.00 73 1021.9
20260906080204 26 45 1.6 3.2 0.00 0.00 0.00 73 1021.9
20260906080104 26 68 3.2 6.4 0.00 0.00 0.00 73 1022.0
20260906080004 26 68 3.2 6.4 0.00 0.00 0.00 73 1021.9
20260906075904 26 90 3.2 3.2 0.00 0.00 0.00 73 1022.1
20260906075804 26 135 3.2 3.2 0.00 0.00 0.00 73 1022.0
20260906075704 26 68 4.8 6.4 0.00 0.00 0.00 73 1022.0
20260906075604 26 68 1.6 6.4 0.00 0.00 0.00 74 1021.9
20260906075504 26 180 3.2 3.2 0.00 0.00 0.00 73 1021.8
20260906075404 26 180 3.2 3.2 0.00 0.00 0.00 73 1021.9
20260906075306 26 112 1.6 3.2 0.00 0.00 0.00 73 1022.1
20260906075203 26 180 3.2 3.2 0.00 0.00 0.00 73 1022.2
20260906075104 26 135 3.2 3.2 0.00 0.00 0.00 73 1022.1
20260906075004 26 112 1.6 3.2 0.00 0.00 0.00 73 1022.0
20260906074904 26 90 3.2 3.2 0.00 0.00 0.00 74 1022.1
20260906074804 26 158 3.2 3.2 0.00 0.00 0.00 73 1021.8
20260906074703 26 112 3.2 6.4 0.00 0.00 0.00 73 1022.0
20260906074604 26 202 3.2 3.2 0.00 0.00 0.00 72 1021.7
20260906074504 26 202 3.2 3.2 0.00 0.00 0.00 72 1022.0
20260906074404 26 90 3.2 6.4 0.00 0.00 0.00 72 1021.9
20260906074304 26 90 0.0 0.0 0.00 0.00 0.00 73 1021.9
20260906074204 26 90 0.0 3.2 0.00 0.00 0.00 72 1021.7
20260906074104 26 90 1.6 3.2 0.00 0.00 0.00 73 1022.0
20260906074004 26 90 1.6 3.2 0.00 0.00 0.00 73 1021.9
20260906073904 26 90 1.6 3.2 0.00 0.00 0.00 73 1021.9
20260906073804 26 68 3.2 3.2 0.00 0.00 0.00 73 1021.9
20260906073704 26 68 3.2 3.2 0.00 0.00 0.00 73 1021.8
20260906073604 26 68 1.6 6.4 0.00 0.00 0.00 73 1021.8
20260906073503 26 0 0.0 0.0 0.00 0.00 0.00 73 1021.7
20260906073404 25 0 0.0 0.0 0.00 0.00 0.00 73 1021.8
20260906073304 25 0 0.0 0.0 0.00 0.00 0.00 73 1021.8
20260906073204 25 68 1.6 3.2 0.00 0.00 0.00 73 1021.9
20260906073104 25 45 3.2 6.4 0.00 0.00 0.00 74 1021.8
20260906073004 25 68 0.0 0.0 0.00 0.00 0.00 74 1021.7
20260906072904 25 22 0.0 3.2 0.00 0.00 0.00 74 1021.7
20260906072803 25 68 1.6 3.2 0.00 0.00 0.00 74 1021.8
20260906072704 25 68 1.6 3.2 0.00 0.00 0.00 74 1021.5
20260906072603 25 90 3.2 3.2 0.00 0.00 0.00 74 1021.7
20260906072503 25 68 3.2 6.4 0.00 0.00 0.00 74 1021.5
20260906072404 25 68 3.2 6.4 0.00 0.00 0.00 74 1021.7
20260906072306 25 90 1.6 3.2 0.00 0.00 0.00 74 1021.7
20260906072204 25 90 3.2 6.4 0.00 0.00 0.00 74 1021.8
20260906072104 25 90 3.2 6.4 0.00 0.00 0.00 74 1021.7
20260906072003 25 45 3.2 6.4 0.00 0.00 0.00 74 1021.6
20260906071903 25 45 4.8 6.4 0.00 0.00 0.00 74 1021.8
20260906071804 25 68 0.0 3.2 0.00 0.00 0.00 75 1021.7
20260906071703 25 90 3.2 3.2 0.00 0.00 0.00 74 1021.8
20260906071603 25 90 3.2 6.4 0.00 0.00 0.00 75 1021.7
20260906071504 25 90 3.2 3.2 0.00 0.00 0.00 75 1021.6
20260906071403 25 68 3.2 6.4 0.00 0.00 0.00 75 1021.5
20260906071303 25 90 3.2 3.2 0.00 0.00 0.00 75 1021.8
20260906071204 25 90 3.2 3.2 0.00 0.00 0.00 75 1021.6
20260906071103 25 68 1.6 3.2 0.00 0.00 0.00 76 1021.7
20260906071004 25 68 1.6 3.2 0.00 0.00 0.00 76 1021.6
20260906070903 25 112 3.2 3.2 0.00 0.00 0.00 76 1021.5
20260906070804 25 45 1.6 3.2 0.00 0.00 0.00 76 1021.7
20260906070704 24 45 3.2 6.4 0.00 0.00 0.00 76 1021.5
20260906070603 24 90 3.2 6.4 0.00 0.00 0.00 76 1021.6
20260906070504 24 45 0.0 3.2 0.00 0.00 0.00 77 1021.7
20260906070405 24 90 1.6 3.2 0.00 0.00 0.00 77 1021.5
20260906070303 24 90 4.8 6.4 0.00 0.00 0.00 77 1021.7
20260906070203 24 90 4.8 6.4 0.00 0.00 0.00 77 1021.7
20260906070104 24 112 3.2 6.4 0.00 0.00 0.00 76 1021.7
20260906070003 24 68 3.2 6.4 0.00 0.00 0.00 77 1021.8
20260906065903 24 45 4.8 6.4 0.00 0.00 0.00 76 1021.5
20260906065804 24 68 4.8 6.4 0.00 0.00 0.00 77 1021.5
20260906065704 24 68 6.4 9.7 0.00 0.00 0.00 77 1021.7
20260906065603 24 90 3.2 6.4 0.00 0.00 0.00 77 1021.8
20260906065503 24 90 4.8 6.4 0.00 0.00 0.00 77 1021.7
20260906065403 24 68 4.8 6.4 0.00 0.00 0.00 77 1021.9
20260906065305 24 90 3.2 6.4 0.00 0.00 0.00 77 1021.5
20260906065204 24 90 3.2 6.4 0.00 0.00 0.00 77 1021.4
20260906065104 24 112 3.2 6.4 0.00 0.00 0.00 78 1021.5
20260906065003 24 45 4.8 6.4 0.00 0.00 0.00 78 1021.5
20260906064904 23 68 6.4 9.7 0.00 0.00 0.00 78 1021.5
20260906064804 23 45 3.2 6.4 0.00 0.00 0.00 78 1021.6
20260906064704 23 68 4.8 6.4 0.00 0.00 0.00 78 1021.7
20260906064604 23 112 4.8 6.4 0.00 0.00 0.00 78 1021.6
20260906064504 23 68 4.8 6.4 0.00 0.00 0.00 78 1021.7
20260906064404 23 68 6.4 9.7 0.00 0.00 0.00 78 1021.8
20260906064305 23 68 6.4 9.7 0.00 0.00 0.00 78 1021.9
20260906064203 23 22 6.4 11.3 0.00 0.00 0.00 78 1021.4
20260906064104 23 45 6.4 12.9 0.00 0.00 0.00 78 1021.7
20260906064004 23 90 4.8 6.4 0.00 0.00 0.00 79 1021.7
20260906063903 23 90 6.4 11.3 0.00 0.00 0.00 79 1021.7
20260906063804 23 112 3.2 6.4 0.00 0.00 0.00 79 1021.5
20260906063703 23 68 6.4 9.7 0.00 0.00 0.00 79 1021.5
20260906063603 23 90 6.4 11.3 0.00 0.00 0.00 79 1021.7
20260906063503 23 45 4.8 9.7 0.00 0.00 0.00 79 1021.5
20260906063403 23 112 3.2 6.4 0.00 0.00 0.00 79 1021.5
20260906063304 23 45 4.8 6.4 0.00 0.00 0.00 79 1021.6
20260906063204 23 68 4.8 9.7 0.00 0.00 0.00 80 1021.5
20260906063104 23 68 6.4 11.3 0.00 0.00 0.00 80 1021.3
20260906063004 23 68 6.4 9.7 0.00 0.00 0.00 80 1021.4
20260906062904 23 22 3.2 6.4 0.00 0.00 0.00 80 1021.3
20260906062804 23 90 3.2 3.2 0.00 0.00 0.00 80 1021.2
20260906062704 23 68 3.2 6.4 0.00 0.00 0.00 81 1021.5
20260906062604 23 90 6.4 9.7 0.00 0.00 0.00 81 1021.4
20260906062505 23 68 4.8 6.4 0.00 0.00 0.00 81 1021.5
20260906062404 23 45 6.4 11.3 0.00 0.00 0.00 81 1021.3
20260906062306 23 45 4.8 9.7 0.00 0.00 0.00 81 1021.5
20260906062203 23 68 3.2 6.4 0.00 0.00 0.00 81 1021.4
20260906062104 23 90 4.8 6.4 0.00 0.00 0.00 81 1021.1
20260906062003 23 90 6.4 9.7 0.00 0.00 0.00 81 1021.3
20260906061904 23 68 6.4 11.3 0.00 0.00 0.00 82 1021.3
20260906061804 23 90 3.2 9.7 0.00 0.00 0.00 82 1021.0
20260906061703 23 45 4.8 9.7 0.00 0.00 0.00 82 1021.2
20260906061604 23 90 6.4 11.3 0.00 0.00 0.00 82 1021.2
20260906061504 22 90 6.4 12.9 0.00 0.00 0.00 82 1021.2
20260906061404 22 90 6.4 12.9 0.00 0.00 0.00 82 1021.2
20260906061304 22 90 6.4 9.7 0.00 0.00 0.00 82 1021.2
20260906061204 22 68 6.4 9.7 0.00 0.00 0.00 83 1021.3
20260906061104 22 68 6.4 9.7 0.00 0.00 0.00 83 1021.3
20260906061004 22 68 4.8 9.7 0.00 0.00 0.00 83 1021.3
20260906060904 22 68 4.8 9.7 0.00 0.00 0.00 84 1021.2
20260906060804 22 45 4.8 6.4 0.00 0.00 0.00 84 1021.2
20260906060704 22 90 4.8 11.3 0.00 0.00 0.00 84 1021.4
20260906060604 22 45 3.2 6.4 0.00 0.00 0.00 84 1021.3
20260906060505 22 112 3.2 6.4 0.00 0.00 0.00 86 1021.3
20260906060403 22 112 3.2 6.4 0.00 0.00 0.00 86 1021.1
20260906060304 22 112 3.2 6.4 0.00 0.00 0.00 86 1021.1
20260906060203 22 112 3.2 6.4 0.00 0.00 0.00 86 1021.1
20260906060103 22 112 3.2 6.4 0.00 0.00 0.00 86 1021.1
20260906060004 22 112 3.2 6.4 0.00 0.00 0.00 86 1021.2
20260906055903 22 68 3.2 6.4 0.00 0.00 0.00 87 1021.2
20260906055804 22 22 4.8 9.7 0.00 0.00 0.00 87 1021.1
20260906055704 22 90 6.4 9.7 0.00 0.00 0.00 87 1021.1
20260906055604 22 45 6.4 6.4 0.00 0.00 0.00 87 1020.9
20260906055504 22 45 3.2 6.4 0.00 0.00 0.00 88 1020.9
20260906055403 22 68 6.4 9.7 0.00 0.00 0.00 88 1020.8
20260906055306 21 90 6.4 9.7 0.00 0.00 0.00 88 1021.0
20260906055204 21 45 6.4 11.3 0.00 0.00 0.00 88 1021.1
20260906055104 21 45 8.0 17.7 0.00 0.00 0.00 88 1021.0
20260906055005 21 22 6.4 12.9 0.00 0.00 0.00 88 1020.9
20260906054904 21 45 4.8 11.3 0.00 0.00 0.00 88 1021.1
20260906054804 21 68 6.4 9.7 0.00 0.00 0.00 88 1020.8
20260906054705 21 45 6.4 6.4 0.00 0.00 0.00 89 1021.1
20260906054604 21 45 4.8 6.4 0.00 0.00 0.00 89 1020.9
20260906054504 21 45 6.4 9.7 0.00 0.00 0.00 89 1021.1
20260906054405 21 45 4.8 6.4 0.00 0.00 0.00 89 1020.9
20260906054304 21 45 3.2 6.4 0.00 0.00 0.00 89 1021.0
20260906054204 21 90 3.2 6.4 0.00 0.00 0.00 89 1021.0
20260906054103 21 22 3.2 6.4 0.00 0.00 0.00 90 1021.0
20260906054004 21 90 1.6 3.2 0.00 0.00 0.00 90 1020.9
20260906053904 21 22 3.2 6.4 0.00 0.00 0.00 90 1021.1
20260906053804 21 68 3.2 3.2 0.00 0.00 0.00 90 1020.9
20260906053704 21 68 1.6 3.2 0.00 0.00 0.00 90 1020.9
20260906053603 21 45 3.2 3.2 0.00 0.00 0.00 90 1021.2
20260906053504 21 90 0.0 3.2 0.00 0.00 0.00 90 1021.0
20260906053404 21 90 0.0 3.2 0.00 0.00 0.00 91 1020.8
20260906053305 21 68 1.6 3.2 0.00 0.00 0.00 91 1021.1
20260906053203 21 68 1.6 3.2 0.00 0.00 0.00 91 1021.0
20260906053103 21 68 3.2 3.2 0.00 0.00 0.00 91 1021.0
20260906053003 21 22 3.2 6.4 0.00 0.00 0.00 91 1020.7
20260906052903 21 68 3.2 3.2 0.00 0.00 0.00 91 1020.9
20260906052803 21 45 3.2 6.4 0.00 0.00 0.00 91 1020.9
20260906052703 20 45 3.2 6.4 0.00 0.00 0.00 91 1020.7
20260906052604 20 45 3.2 6.4 0.00 0.00 0.00 91 1020.7
20260906052503 20 158 0.0 0.0 0.00 0.00 0.00 91 1020.9
20260906052403 20 158 0.0 0.0 0.00 0.00 0.00 91 1020.7
20260906052305 20 270 0.0 0.0 0.00 0.00 0.00 91 1020.6
20260906052204 20 270 0.0 0.0 0.00 0.00 0.00 91 1020.7
20260906052104 20 112 0.0 0.0 0.00 0.00 0.00 91 1020.8
20260906052004 20 112 0.0 0.0 0.00 0.00 0.00 91 1020.7
20260906051904 20 270 1.6 3.2 0.00 0.00 0.00 91 1020.7
20260906051803 20 45 1.6 6.4 0.00 0.00 0.00 91 1020.8
20260906051704 20 45 3.2 6.4 0.00 0.00 0.00 91 1020.9
20260906051605 20 90 0.0 0.0 0.00 0.00 0.00 91 1020.7
20260906051504 20 90 3.2 3.2 0.00 0.00 0.00 91 1020.8
20260906051404 20 45 4.8 6.4 0.00 0.00 0.00 91 1020.8
20260906051304 20 68 3.2 6.4 0.00 0.00 0.00 91 1020.9
20260906051204 20 90 1.6 3.2 0.00 0.00 0.00 91 1020.6
20260906051104 20 90 3.2 6.4 0.00 0.00 0.00 91 1020.7
20260906051003 20 112 3.2 6.4 0.00 0.00 0.00 90 1020.5
20260906050904 20 68 4.8 6.4 0.00 0.00 0.00 90 1020.8
20260906050804 20 90 3.2 6.4 0.00 0.00 0.00 90 1020.6
20260906050704 20 68 3.2 3.2 0.00 0.00 0.00 90 1021.0
20260906050603 20 68 6.4 9.7 0.00 0.00 0.00 90 1020.4
20260906050504 20 68 6.4 12.9 0.00 0.00 0.00 90 1020.8
20260906050404 20 90 4.8 6.4 0.00 0.00 0.00 90 1020.7
20260906050303 20 90 3.2 6.4 0.00 0.00 0.00 90 1020.8
20260906050204 20 112 4.8 6.4 0.00 0.00 0.00 90 1020.8
20260906050104 20 68 3.2 6.4 0.00 0.00 0.00 90 1020.7
20260906050004 20 112 4.8 6.4 0.00 0.00 0.00 90 1020.7
20260906045903 20 68 3.2 6.4 0.00 0.00 0.00 90 1020.5
20260906045804 20 68 4.8 6.4 0.00 0.00 0.00 90 1020.6
20260906045704 20 90 3.2 6.4 0.00 0.00 0.00 90 1020.6
20260906045604 20 90 4.8 6.4 0.00 0.00 0.00 89 1020.7
20260906045504 20 68 3.2 6.4 0.00 0.00 0.00 89 1020.4
20260906045404 20 112 1.6 3.2 0.00 0.00 0.00 89 1020.7
20260906045306 20 68 3.2 6.4 0.00 0.00 0.00 89 1020.7
20260906045204 20 90 3.2 6.4 0.00 0.00 0.00 89 1020.6
20260906045104 21 90 4.8 6.4 0.00 0.00 0.00 89 1020.8
20260906045003 21 90 6.4 9.7 0.00 0.00 0.00 89 1020.5
20260906044904 21 45 6.4 9.7 0.00 0.00 0.00 89 1020.5
20260906044804 21 68 6.4 6.4 0.00 0.00 0.00 89 1020.6
20260906044704 21 68 6.4 9.7 0.00 0.00 0.00 89 1020.6
20260906044604 21 68 6.4 9.7 0.00 0.00 0.00 89 1020.5
20260906044504 21 90 4.8 9.7 0.00 0.00 0.00 89 1020.5
20260906044404 21 68 4.8 6.4 0.00 0.00 0.00 89 1020.5
20260906044303 21 68 6.4 9.7 0.00 0.00 0.00 89 1020.4
20260906044204 21 68 3.2 9.7 0.00 0.00 0.00 89 1020.5
20260906044104 21 90 3.2 6.4 0.00 0.00 0.00 89 1020.5
20260906044005 21 90 3.2 6.4 0.00 0.00 0.00 89 1020.2
20260906043904 21 68 4.8 6.4 0.00 0.00 0.00 89 1020.4
20260906043804 21 68 4.8 6.4 0.00 0.00 0.00 89 1020.1
20260906043704 21 90 4.8 6.4 0.00 0.00 0.00 89 1020.4
20260906043604 21 90 6.4 6.4 0.00 0.00 0.00 89 1020.4
20260906043504 21 68 4.8 6.4 0.00 0.00 0.00 88 1020.2
20260906043403 21 68 6.4 9.7 0.00 0.00 0.00 88 1020.3
20260906043304 21 68 6.4 11.3 0.00 0.00 0.00 88 1020.3
20260906043203 21 68 6.4 9.7 0.00 0.00 0.00 88 1020.4
20260906043104 21 90 6.4 11.3 0.00 0.00 0.00 88 1020.2
20260906043004 21 68 4.8 9.7 0.00 0.00 0.00 88 1020.3
20260906042903 21 68 4.8 6.4 0.00 0.00 0.00 88 1020.4
20260906042803 21 68 4.8 6.4 0.00 0.00 0.00 88 1020.2
20260906042704 21 68 3.2 6.4 0.00 0.00 0.00 88 1020.3
20260906042604 21 90 6.4 9.7 0.00 0.00 0.00 88 1020.4
20260906042504 21 68 4.8 6.4 0.00 0.00 0.00 88 1020.6
20260906042403 21 112 3.2 6.4 0.00 0.00 0.00 88 1020.4
20260906042306 21 68 4.8 9.7 0.00 0.00 0.00 88 1020.4
20260906042203 21 90 4.8 6.4 0.00 0.00 0.00 88 1020.4
20260906042104 21 45 4.8 9.7 0.00 0.00 0.00 88 1020.2
20260906042004 21 68 6.4 11.3 0.00 0.00 0.00 88 1020.4
20260906041904 21 90 6.4 6.4 0.00 0.00 0.00 88 1020.5
20260906041804 21 45 8.0 12.9 0.00 0.00 0.00 88 1020.3
20260906041704 21 68 6.4 9.7 0.00 0.00 0.00 88 1020.2
20260906041604 21 68 6.4 11.3 0.00 0.00 0.00 88 1020.1
20260906041504 21 45 6.4 11.3 0.00 0.00 0.00 88 1020.4
20260906041404 21 22 4.8 6.4 0.00 0.00 0.00 88 1020.3
20260906041304 21 68 6.4 11.3 0.00 0.00 0.00 88 1020.6
20260906041204 21 90 6.4 9.7 0.00 0.00 0.00 88 1020.2
20260906041103 21 90 8.0 12.9 0.00 0.00 0.00 88 1020.3
20260906041004 21 90 6.4 6.4 0.00 0.00 0.00 88 1020.3
20260906040904 21 68 4.8 6.4 0.00 0.00 0.00 88 1020.4
20260906040803 21 90 6.4 6.4 0.00 0.00 0.00 88 1020.1
20260906040703 21 90 6.4 6.4 0.00 0.00 0.00 88 1020.3
20260906040604 21 90 6.4 6.4 0.00 0.00 0.00 88 1020.3
20260906040504 21 90 6.4 6.4 0.00 0.00 0.00 88 1020.1
20260906040403 21 90 4.8 9.7 0.00 0.00 0.00 88 1020.2
20260906040304 21 68 6.4 9.7 0.00 0.00 0.00 89 1020.2
20260906040203 21 90 6.4 14.5 0.00 0.00 0.00 89 1020.3
20260906040104 21 90 8.0 11.3 0.00 0.00 0.00 89 1020.2
20260906040003 21 90 8.0 11.3 0.00 0.00 0.00 89 1020.1
20260906035903 21 45 4.8 6.4 0.00 0.00 0.00 89 1020.0
20260906035804 21 68 6.4 9.7 0.00 0.00 0.00 89 1020.2
20260906035703 21 45 6.4 6.4 0.00 0.00 0.00 89 1020.2
20260906035603 21 22 6.4 9.7 0.00 0.00 0.00 89 1020.1
20260906035504 21 68 6.4 9.7 0.00 0.00 0.00 89 1020.3
20260906035403 21 68 6.4 9.7 0.00 0.00 0.00 89 1020.4
20260906035306 21 68 6.4 9.7 0.00 0.00 0.00 89 1020.1
20260906035204 21 68 4.8 6.4 0.00 0.00 0.00 89 1020.2
20260906035104 21 68 6.4 11.3 0.00 0.00 0.00 89 1020.2
20260906035004 21 90 6.4 9.7 0.00 0.00 0.00 89 1020.6
20260906034904 21 90 6.4 9.7 0.00 0.00 0.00 89 1020.4
20260906034804 21 90 6.4 11.3 0.00 0.00 0.00 89 1020.4
20260906034704 21 68 6.4 9.7 0.00 0.00 0.00 89 1020.4
20260906034604 21 45 8.0 14.5 0.00 0.00 0.00 89 1020.2
20260906034504 21 68 8.0 12.9 0.00 0.00 0.00 89 1020.3
20260906034404 21 90 8.0 11.3 0.00 0.00 0.00 89 1020.3
20260906034304 21 68 9.7 11.3 0.00 0.00 0.00 89 1020.0
20260906034203 21 90 9.7 12.9 0.00 0.00 0.00 89 1020.4
20260906034103 21 45 6.4 6.4 0.00 0.00 0.00 89 1020.2
20260906034004 21 45 4.8 12.9 0.00 0.00 0.00 89 1020.2
20260906033903 21 68 9.7 12.9 0.00 0.00 0.00 88 1020.5
20260906033803 21 68 9.7 12.9 0.00 0.00 0.00 88 1020.4
20260906033704 21 68 9.7 12.9 0.00 0.00 0.00 88 1020.2
20260906033604 21 68 6.4 11.3 0.00 0.00 0.00 88 1020.2
20260906033503 21 68 6.4 11.3 0.00 0.00 0.00 88 1020.3
20260906033403 21 68 6.4 11.3 0.00 0.00 0.00 88 1020.3
20260906033304 21 68 6.4 11.3 0.00 0.00 0.00 88 1020.3
20260906033204 21 90 6.4 9.7 0.00 0.00 0.00 88 1020.3
20260906033104 21 68 6.4 11.3 0.00 0.00 0.00 88 1020.2
20260906033004 21 45 6.4 6.4 0.00 0.00 0.00 88 1020.3
20260906032904 21 68 4.8 6.4 0.00 0.00 0.00 88 1020.5
20260906032804 21 68 4.8 6.4 0.00 0.00 0.00 88 1020.3
20260906032704 21 90 8.0 12.9 0.00 0.00 0.00 88 1020.4
20260906032604 21 90 8.0 12.9 0.00 0.00 0.00 88 1020.4
20260906032504 21 90 9.7 12.9 0.00 0.00 0.00 88 1020.3
20260906032404 21 90 8.0 12.9 0.00 0.00 0.00 88 1020.4
20260906032306 21 45 6.4 11.3 0.00 0.00 0.00 88 1020.3
20260906032204 21 45 4.8 9.7 0.00 0.00 0.00 87 1020.3
20260906032104 21 68 6.4 9.7 0.00 0.00 0.00 87 1020.3
20260906032003 21 45 6.4 9.7 0.00 0.00 0.00 87 1020.0
20260906031903 21 68 6.4 9.7 0.00 0.00 0.00 87 1020.2
20260906031804 21 68 4.8 6.4 0.00 0.00 0.00 87 1020.2
20260906031703 21 45 6.4 11.3 0.00 0.00 0.00 87 1020.3
20260906031603 21 68 6.4 9.7 0.00 0.00 0.00 87 1020.1
20260906031503 21 90 4.8 6.4 0.00 0.00 0.00 87 1020.2
20260906031403 21 68 3.2 6.4 0.00 0.00 0.00 87 1020.4
20260906031303 21 68 4.8 9.7 0.00 0.00 0.00 87 1020.3
20260906031204 21 68 4.8 6.4 0.00 0.00 0.00 87 1020.1
20260906031104 21 68 3.2 6.4 0.00 0.00 0.00 87 1020.4
20260906031004 21 90 4.8 9.7 0.00 0.00 0.00 87 1020.3
20260906030903 21 68 6.4 6.4 0.00 0.00 0.00 88 1020.4
20260906030803 21 68 4.8 9.7 0.00 0.00 0.00 88 1020.1
20260906030704 21 45 3.2 6.4 0.00 0.00 0.00 88 1020.5
20260906030604 21 68 6.4 9.7 0.00 0.00 0.00 88 1020.3
20260906030504 21 45 4.8 6.4 0.00 0.00 0.00 88 1020.2
20260906030404 21 45 4.8 11.3 0.00 0.00 0.00 89 1020.2
20260906030304 21 68 6.4 11.3 0.00 0.00 0.00 89 1020.4
20260906030205 21 68 4.8 6.4 0.00 0.00 0.00 89 1020.2
20260906030104 21 45 4.8 6.4 0.00 0.00 0.00 90 1020.2
20260906030004 21 22 4.8 6.4 0.00 0.00 0.00 90 1020.1
20260906025904 21 45 3.2 6.4 0.00 0.00 0.00 90 1020.3
20260906025803 21 45 4.8 6.4 0.00 0.00 0.00 91 1020.4
20260906025704 21 45 6.4 9.7 0.00 0.00 0.00 91 1020.2
20260906025604 21 68 6.4 9.7 0.00 0.00 0.00 91 1020.1
20260906025504 21 45 3.2 6.4 0.00 0.00 0.00 91 1020.3
20260906025404 21 68 4.8 9.7 0.00 0.00 0.00 91 1020.2
20260906025306 21 90 3.2 6.4 0.00 0.00 0.00 91 1020.1
20260906025204 21 90 4.8 6.4 0.00 0.00 0.00 91 1020.2
20260906025104 21 68 3.2 6.4 0.00 0.00 0.00 92 1020.3
20260906025005 21 90 3.2 6.4 0.00 0.00 0.00 92 1020.3
20260906024904 21 45 3.2 6.4 0.00 0.00 0.00 92 1020.4
20260906024805 21 90 4.8 6.4 0.00 0.00 0.00 92 1020.3
20260906024704 21 68 3.2 6.4 0.00 0.00 0.00 92 1020.1
20260906024605 21 90 3.2 6.4 0.00 0.00 0.00 92 1020.3
20260906024504 21 90 3.2 6.4 0.00 0.00 0.00 92 1020.2
20260906024404 21 68 4.8 6.4 0.00 0.00 0.00 92 1020.3
20260906024304 21 90 4.8 6.4 0.00 0.00 0.00 92 1020.3
20260906024205 21 45 6.4 9.7 0.00 0.00 0.00 92 1020.2
20260906024103 21 68 4.8 6.4 0.00 0.00 0.00 92 1020.2
20260906024004 21 68 4.8 6.4 0.00 0.00 0.00 92 1020.5
20260906023904 21 90 6.4 6.4 0.00 0.00 0.00 92 1020.3
20260906023803 21 68 6.4 9.7 0.00 0.00 0.00 91 1020.5
20260906023704 21 68 6.4 9.7 0.00 0.00 0.00 91 1020.3
20260906023604 21 45 4.8 6.4 0.00 0.00 0.00 91 1020.7
20260906023504 21 68 6.4 9.7 0.00 0.00 0.00 91 1020.4
20260906023404 21 68 6.4 9.7 0.00 0.00 0.00 91 1020.2
20260906023304 21 45 6.4 9.7 0.00 0.00 0.00 91 1020.4
20260906023204 21 90 3.2 6.4 0.00 0.00 0.00 91 1020.4
20260906023103 21 90 4.8 6.4 0.00 0.00 0.00 91 1020.6
20260906023003 21 90 6.4 9.7 0.00 0.00 0.00 91 1020.5
20260906022903 21 68 3.2 3.2 0.00 0.00 0.00 91 1020.6
20260906022804 21 68 3.2 6.4 0.00 0.00 0.00 91 1020.5
20260906022704 21 45 3.2 3.2 0.00 0.00 0.00 91 1020.4
20260906022604 21 90 3.2 6.4 0.00 0.00 0.00 91 1020.4
20260906022503 21 68 3.2 3.2 0.00 0.00 0.00 91 1020.3
20260906022404 21 68 4.8 6.4 0.00 0.00 0.00 91 1020.5
20260906022306 21 68 6.4 11.3 0.00 0.00 0.00 91 1020.2
20260906022204 21 68 6.4 9.7 0.00 0.00 0.00 91 1020.3
20260906022104 21 68 6.4 6.4 0.00 0.00 0.00 91 1020.5
20260906022004 21 90 4.8 6.4 0.00 0.00 0.00 91 1020.3
20260906021904 21 68 4.8 6.4 0.00 0.00 0.00 91 1020.5
20260906021803 21 90 4.8 6.4 0.00 0.00 0.00 91 1020.3
20260906021704 21 68 4.8 6.4 0.00 0.00 0.00 91 1020.3
20260906021604 21 68 3.2 6.4 0.00 0.00 0.00 91 1020.4
20260906021504 21 68 3.2 6.4 0.00 0.00 0.00 91 1020.3
20260906021404 21 90 4.8 6.4 0.00 0.00 0.00 91 1020.2
20260906021304 21 45 3.2 6.4 0.00 0.00 0.00 91 1020.1
20260906021204 21 90 4.8 6.4 0.00 0.00 0.00 91 1020.3
20260906021103 21 68 6.4 9.7 0.00 0.00 0.00 91 1020.4
20260906021004 21 68 3.2 6.4 0.00 0.00 0.00 91 1020.3
20260906020904 21 90 4.8 6.4 0.00 0.00 0.00 91 1020.4
20260906020804 21 68 3.2 6.4 0.00 0.00 0.00 91 1020.4
20260906020704 21 45 3.2 6.4 0.00 0.00 0.00 91 1020.2
20260906020604 21 90 4.8 6.4 0.00 0.00 0.00 91 1020.2
20260906020504 21 68 4.8 6.4 0.00 0.00 0.00 91 1020.2
20260906020404 21 68 6.4 9.7 0.00 0.00 0.00 91 1020.3
20260906020303 21 90 4.8 6.4 0.00 0.00 0.00 91 1020.3
20260906020204 21 22 3.2 3.2 0.00 0.00 0.00 91 1020.2
20260906020104 21 22 3.2 3.2 0.00 0.00 0.00 91 1020.4
20260906020003 21 90 1.6 3.2 0.00 0.00 0.00 91 1020.1
20260906015905 21 68 3.2 6.4 0.00 0.00 0.00 91 1020.5
20260906015803 21 112 3.2 3.2 0.00 0.00 0.00 91 1020.3
20260906015704 21 112 3.2 3.2 0.00 0.00 0.00 91 1020.5
20260906015605 21 90 3.2 3.2 0.00 0.00 0.00 91 1020.6
20260906015504 21 112 3.2 6.4 0.00 0.00 0.00 91 1020.5
20260906015404 21 90 4.8 6.4 0.00 0.00 0.00 91 1020.2
20260906015306 21 90 4.8 6.4 0.00 0.00 0.00 91 1020.3
20260906015204 21 90 4.8 6.4 0.00 0.00 0.00 91 1020.4
20260906015103 21 68 3.2 6.4 0.00 0.00 0.00 90 1020.4
20260906015004 21 90 3.2 6.4 0.00 0.00 0.00 90 1020.1
20260906014904 21 68 4.8 6.4 0.00 0.00 0.00 90 1020.2
20260906014803 21 68 4.8 6.4 0.00 0.00 0.00 90 1020.4
20260906014704 21 68 6.4 6.4 0.00 0.00 0.00 90 1020.3
20260906014604 21 68 4.8 6.4 0.00 0.00 0.00 90 1020.2
20260906014504 21 68 3.2 6.4 0.00 0.00 0.00 90 1020.5
20260906014403 21 68 3.2 6.4 0.00 0.00 0.00 90 1020.5
20260906014304 21 90 4.8 6.4 0.00 0.00 0.00 89 1020.2
20260906014204 21 68 6.4 6.4 0.00 0.00 0.00 89 1020.4
20260906014103 21 68 4.8 6.4 0.00 0.00 0.00 89 1020.3
20260906014003 21 112 3.2 6.4 0.00 0.00 0.00 89 1020.2
20260906013903 21 112 4.8 6.4 0.00 0.00 0.00 89 1020.3
20260906013803 21 90 4.8 6.4 0.00 0.00 0.00 89 1020.3
20260906013703 21 112 3.2 9.7 0.00 0.00 0.00 89 1020.5
20260906013604 21 90 3.2 6.4 0.00 0.00 0.00 88 1020.3
20260906013503 21 90 3.2 6.4 0.00 0.00 0.00 88 1020.4
20260906013403 21 90 3.2 6.4 0.00 0.00 0.00 88 1020.2
20260906013304 21 68 3.2 6.4 0.00 0.00 0.00 88 1020.4
20260906013203 21 68 3.2 6.4 0.00 0.00 0.00 88 1020.4
20260906013104 21 90 3.2 6.4 0.00 0.00 0.00 88 1020.2
20260906013004 21 90 3.2 3.2 0.00 0.00 0.00 88 1020.3
20260906012903 21 90 3.2 3.2 0.00 0.00 0.00 88 1020.5
20260906012803 21 90 3.2 3.2 0.00 0.00 0.00 88 1020.2
20260906012704 21 135 3.2 6.4 0.00 0.00 0.00 88 1020.4
20260906012604 21 90 3.2 6.4 0.00 0.00 0.00 88 1020.4
20260906012504 21 90 3.2 6.4 0.00 0.00 0.00 88 1020.4
20260906012404 21 68 3.2 6.4 0.00 0.00 0.00 88 1020.2
20260906012306 21 135 3.2 3.2 0.00 0.00 0.00 88 1020.3
20260906012204 21 112 3.2 6.4 0.00 0.00 0.00 87 1020.4
20260906012104 21 135 3.2 6.4 0.00 0.00 0.00 87 1020.4
20260906012003 21 112 4.8 6.4 0.00 0.00 0.00 87 1020.3
20260906011903 22 135 0.0 0.0 0.00 0.00 0.00 87 1020.1
20260906011804 22 112 0.0 0.0 0.00 0.00 0.00 87 1020.2
20260906011704 22 90 0.0 0.0 0.00 0.00 0.00 87 1020.3
20260906011603 22 112 0.0 0.0 0.00 0.00 0.00 87 1020.6
20260906011504 22 68 1.6 3.2 0.00 0.00 0.00 87 1020.4
20260906011404 22 68 1.6 3.2 0.00 0.00 0.00 87 1020.4
20260906011303 22 90 1.6 3.2 0.00 0.00 0.00 87 1020.3
20260906011204 22 90 0.0 3.2 0.00 0.00 0.00 87 1020.3
20260906011104 22 112 1.6 3.2 0.00 0.00 0.00 87 1020.3
20260906011004 22 68 3.2 3.2 0.00 0.00 0.00 87 1020.5
20260906010904 22 90 3.2 3.2 0.00 0.00 0.00 87 1020.3
20260906010805 22 90 3.2 3.2 0.00 0.00 0.00 87 1020.3
20260906010704 22 112 3.2 3.2 0.00 0.00 0.00 87 1020.4
20260906010604 22 112 3.2 3.2 0.00 0.00 0.00 86 1020.2
20260906010504 22 112 3.2 3.2 0.00 0.00 0.00 86 1020.5
20260906010404 22 112 1.6 3.2 0.00 0.00 0.00 86 1020.4
20260906010304 22 135 1.6 3.2 0.00 0.00 0.00 86 1020.2
20260906010205 22 112 1.6 3.2 0.00 0.00 0.00 86 1020.4
20260906010104 22 112 1.6 3.2 0.00 0.00 0.00 86 1020.2
20260906010004 22 112 1.6 3.2 0.00 0.00 0.00 86 1020.2
20260906005904 22 90 1.6 3.2 0.00 0.00 0.00 86 1020.3
20260906005804 22 112 1.6 3.2 0.00 0.00 0.00 86 1020.4
20260906005704 22 90 3.2 3.2 0.00 0.00 0.00 86 1020.3
20260906005604 22 90 3.2 3.2 0.00 0.00 0.00 86 1020.4
20260906005503 22 68 3.2 6.4 0.00 0.00 0.00 86 1020.2
20260906005404 22 68 3.2 6.4 0.00 0.00 0.00 86 1020.1
20260906005306 22 90 3.2 3.2 0.00 0.00 0.00 85 1020.0
20260906005203 22 68 3.2 6.4 0.00 0.00 0.00 85 1020.3
20260906005103 22 68 3.2 6.4 0.00 0.00 0.00 85 1020.2
20260906005003 22 68 3.2 6.4 0.00 0.00 0.00 85 1020.2
20260906004904 22 68 3.2 3.2 0.00 0.00 0.00 85 1020.3
20260906004803 22 68 1.6 6.4 0.00 0.00 0.00 85 1020.1
20260906004703 22 90 3.2 6.4 0.00 0.00 0.00 85 1020.1
20260906004604 22 68 3.2 6.4 0.00 0.00 0.00 85 1020.3
20260906004503 22 68 3.2 3.2 0.00 0.00 0.00 85 1020.3
20260906004403 22 90 3.2 6.4 0.00 0.00 0.00 85 1020.4
20260906004303 22 90 3.2 6.4 0.00 0.00 0.00 85 1020.2
20260906004203 22 68 3.2 3.2 0.00 0.00 0.00 85 1020.3
20260906004104 22 68 3.2 3.2 0.00 0.00 0.00 85 1020.3
20260906004004 22 90 3.2 6.4 0.00 0.00 0.00 85 1020.2
20260906003904 22 68 4.8 6.4 0.00 0.00 0.00 85 1020.2
20260906003803 23 90 3.2 6.4 0.00 0.00 0.00 85 1020.2
20260906003703 23 68 3.2 6.4 0.00 0.00 0.00 84 1020.4
20260906003604 22 68 3.2 6.4 0.00 0.00 0.00 84 1020.4
20260906003504 22 90 1.6 3.2 0.00 0.00 0.00 84 1020.3
20260906003404 23 90 3.2 3.2 0.00 0.00 0.00 84 1020.3
20260906003305 22 68 3.2 3.2 0.00 0.00 0.00 84 1020.1
20260906003204 23 112 3.2 3.2 0.00 0.00 0.00 84 1020.2
20260906003104 23 90 0.0 0.0 0.00 0.00 0.00 84 1020.3
20260906003003 23 68 0.0 0.0 0.00 0.00 0.00 84 1020.1
20260906002903 23 68 0.0 0.0 0.00 0.00 0.00 84 1020.2
20260906002803 23 68 0.0 3.2 0.00 0.00 0.00 84 1020.1
20260906002704 23 68 0.0 0.0 0.00 0.00 0.00 84 1020.1
20260906002604 23 90 1.6 3.2 0.00 0.00 0.00 83 1020.0
20260906002503 23 68 1.6 3.2 0.00 0.00 0.00 83 1020.4
20260906002404 23 45 3.2 6.4 0.00 0.00 0.00 83 1020.4
20260906002306 23 45 4.8 6.4 0.00 0.00 0.00 83 1020.5
20260906002203 23 45 3.2 3.2 0.00 0.00 0.00 83 1020.5
20260906002104 22 45 3.2 6.4 0.00 0.00 0.00 83 1020.6
20260906002004 22 45 3.2 6.4 0.00 0.00 0.00 83 1020.3
20260906001904 22 45 3.2 6.4 0.00 0.00 0.00 83 1020.1
20260906001804 22 22 3.2 3.2 0.00 0.00 0.00 83 1020.1
20260906001704 22 90 1.6 3.2 0.00 0.00 0.00 83 1020.3
20260906001604 22 68 3.2 6.4 0.00 0.00 0.00 83 1020.3
20260906001504 22 90 3.2 6.4 0.00 0.00 0.00 84 1020.5
20260906001404 22 90 3.2 3.2 0.00 0.00 0.00 84 1020.3
20260906001304 22 68 0.0 3.2 0.00 0.00 0.00 84 1020.5
20260906001204 22 68 3.2 3.2 0.00 0.00 0.00 84 1020.3
20260906001104 22 68 1.6 3.2 0.00 0.00 0.00 84 1020.5
20260906001003 22 90 3.2 6.4 0.00 0.00 0.00 84 1020.5
20260906000904 22 68 3.2 3.2 0.00 0.00 0.00 84 1020.3
20260906000804 22 90 3.2 3.2 0.00 0.00 0.00 84 1020.5
20260906000704 22 68 3.2 6.4 0.00 0.00 0.00 84 1020.6
20260906000604 22 68 3.2 3.2 0.00 0.00 0.00 84 1020.6
20260906000503 22 90 3.2 3.2 0.00 0.00 0.00 84 1020.5
20260906000404 22 90 3.2 3.2 0.00 0.00 0.00 84 1020.5
20260906000304 22 90 3.2 3.2 0.00 0.00 0.00 84 1020.5
20260906000204 22 90 3.2 3.2 0.00 0.00 0.00 84 1020.4
20260906000103 22 90 3.2 3.2 0.00 0.00 0.00 84 1020.3
20260906000004 22 90 3.2 3.2 0.00 0.00 0.00 84 1020.6
20260905235903 22 90 3.2 3.2 0.00 0.00 0.00 84 1020.2
20260905235804 22 68 3.2 6.4 0.00 0.00 0.00 84 1020.6
20260905235703 22 68 3.2 3.2 0.00 0.00 0.00 84 1020.3
20260905235603 22 90 3.2 3.2 0.00 0.00 0.00 85 1020.4
20260905235503 22 45 3.2 6.4 0.00 0.00 0.00 85 1020.3
20260905235404 22 90 3.2 3.2 0.00 0.00 0.00 85 1020.5
20260905235306 22 45 3.2 6.4 0.00 0.00 0.00 85 1020.5
20260905235204 22 90 6.4 9.7 0.00 0.00 0.00 85 1020.5
20260905235104 22 112 3.2 6.4 0.00 0.00 0.00 85 1020.4
20260905235004 22 68 4.8 6.4 0.00 0.00 0.00 85 1020.5
20260905234904 22 68 0.0 6.4 0.00 0.00 0.00 85 1020.5
20260905234804 22 112 3.2 3.2 0.00 0.00 0.00 85 1020.5
20260905234704 23 112 0.0 0.0 0.00 0.00 0.00 84 1020.6
20260905234603 23 22 0.0 0.0 0.00 0.00 0.00 84 1020.5
20260905234504 23 90 0.0 3.2 0.00 0.00 0.00 84 1020.4
20260905234404 23 90 1.6 3.2 0.00 0.00 0.00 84 1020.6
20260905234304 23 68 1.6 3.2 0.00 0.00 0.00 84 1020.5
20260905234204 23 68 1.6 3.2 0.00 0.00 0.00 84 1020.6
20260905234103 23 112 1.6 3.2 0.00 0.00 0.00 84 1020.6
20260905234004 23 112 3.2 3.2 0.00 0.00 0.00 84 1020.5
20260905233904 23 90 3.2 3.2 0.00 0.00 0.00 84 1020.5
20260905233803 23 45 1.6 3.2 0.00 0.00 0.00 84 1020.5
20260905233703 23 45 1.6 3.2 0.00 0.00 0.00 84 1020.4
20260905233604 23 68 3.2 6.4 0.00 0.00 0.00 84 1020.6
20260905233503 23 90 3.2 3.2 0.00 0.00 0.00 84 1020.8
20260905233403 23 90 3.2 3.2 0.00 0.00 0.00 84 1020.4
20260905233304 23 112 3.2 3.2 0.00 0.00 0.00 84 1020.5
20260905233203 23 68 3.2 3.2 0.00 0.00 0.00 84 1020.2
20260905233104 23 90 3.2 3.2 0.00 0.00 0.00 84 1020.4
20260905233004 23 90 3.2 3.2 0.00 0.00 0.00 84 1020.1
20260905232904 23 68 3.2 3.2 0.00 0.00 0.00 84 1020.7
20260905232804 23 45 3.2 3.2 0.00 0.00 0.00 84 1020.5
20260905232703 23 90 3.2 6.4 0.00 0.00 0.00 84 1020.4
20260905232604 23 112 1.6 3.2 0.00 0.00 0.00 84 1020.5
20260905232505 23 90 3.2 6.4 0.00 0.00 0.00 83 1020.2
20260905232404 23 112 3.2 6.4 0.00 0.00 0.00 83 1020.4
20260905232306 23 90 3.2 6.4 0.00 0.00 0.00 83 1020.6
20260905232204 23 90 3.2 3.2 0.00 0.00 0.00 83 1020.7
20260905232104 23 68 3.2 3.2 0.00 0.00 0.00 83 1020.4
20260905232003 23 90 3.2 3.2 0.00 0.00 0.00 83 1020.5
20260905231903 23 90 0.0 0.0 0.00 0.00 0.00 83 1020.3
20260905231804 23 68 0.0 3.2 0.00 0.00 0.00 83 1020.4
20260905231704 23 90 0.0 0.0 0.00 0.00 0.00 83 1020.3
20260905231603 23 90 1.6 3.2 0.00 0.00 0.00 83 1020.4
20260905231504 23 68 1.6 3.2 0.00 0.00 0.00 84 1020.5
20260905231403 23 68 3.2 3.2 0.00 0.00 0.00 84 1020.5
20260905231304 23 68 3.2 6.4 0.00 0.00 0.00 84 1020.5
20260905231204 23 68 1.6 3.2 0.00 0.00 0.00 84 1020.5
20260905231104 23 45 3.2 3.2 0.00 0.00 0.00 84 1020.8
20260905231004 23 45 3.2 6.4 0.00 0.00 0.00 84 1020.6
20260905230904 23 68 3.2 6.4 0.00 0.00 0.00 84 1020.7
20260905230804 23 68 3.2 6.4 0.00 0.00 0.00 84 1020.6
20260905230704 23 45 1.6 3.2 0.00 0.00 0.00 84 1020.5
20260905230604 23 45 0.0 0.0 0.00 0.00 0.00 84 1020.7
20260905230504 23 90 0.0 0.0 0.00 0.00 0.00 84 1020.8
20260905230404 23 45 0.0 0.0 0.00 0.00 0.00 84 1020.8
20260905230305 23 90 0.0 0.0 0.00 0.00 0.00 84 1020.5
20260905230204 23 112 0.0 3.2 0.00 0.00 0.00 83 1020.5
20260905230104 23 90 1.6 3.2 0.00 0.00 0.00 83 1020.4
20260905230004 23 90 1.6 3.2 0.00 0.00 0.00 83 1020.5
20260905225904 23 90 3.2 6.4 0.00 0.00 0.00 83 1020.6
20260905225804 23 68 1.6 3.2 0.00 0.00 0.00 83 1020.6
20260905225704 23 90 0.0 3.2 0.00 0.00 0.00 83 1020.7
20260905225604 23 90 1.6 3.2 0.00 0.00 0.00 83 1020.5
20260905225504 23 90 0.0 0.0 0.00 0.00 0.00 83 1020.5
20260905225404 23 112 0.0 0.0 0.00 0.00 0.00 83 1020.4
20260905225306 23 90 0.0 0.0 0.00 0.00 0.00 83 1020.4
20260905225203 23 112 0.0 0.0 0.00 0.00 0.00 83 1020.5
20260905225103 23 112 0.0 0.0 0.00 0.00 0.00 83 1020.6
20260905225003 23 112 0.0 0.0 0.00 0.00 0.00 83 1020.5
20260905224903 23 90 0.0 0.0 0.00 0.00 0.00 82 1020.5
20260905224803 23 90 0.0 3.2 0.00 0.00 0.00 82 1020.5
20260905224704 23 68 1.6 6.4 0.00 0.00 0.00 82 1020.5
20260905224603 23 68 0.0 0.0 0.00 0.00 0.00 82 1020.8
20260905224503 23 90 0.0 0.0 0.00 0.00 0.00 82 1020.7
20260905224403 23 90 0.0 0.0 0.00 0.00 0.00 82 1020.6
20260905224303 23 45 0.0 0.0 0.00 0.00 0.00 82 1020.5
20260905224204 23 90 0.0 0.0 0.00 0.00 0.00 82 1020.5
20260905224104 23 68 0.0 0.0 0.00 0.00 0.00 82 1020.7
20260905224004 23 68 0.0 0.0 0.00 0.00 0.00 82 1020.7
20260905223904 23 90 0.0 0.0 0.00 0.00 0.00 82 1020.6
20260905223804 23 90 0.0 0.0 0.00 0.00 0.00 82 1020.6
20260905223703 23 135 0.0 0.0 0.00 0.00 0.00 82 1020.3
20260905223604 23 135 0.0 0.0 0.00 0.00 0.00 82 1020.8
20260905223504 23 158 0.0 0.0 0.00 0.00 0.00 82 1020.6
20260905223404 23 112 0.0 0.0 0.00 0.00 0.00 82 1020.5
20260905223303 23 135 0.0 0.0 0.00 0.00 0.00 81 1020.5
20260905223204 23 112 1.6 3.2 0.00 0.00 0.00 82 1020.4
20260905223103 23 90 1.6 3.2 0.00 0.00 0.00 81 1020.6
20260905223004 23 45 3.2 3.2 0.00 0.00 0.00 81 1020.3
20260905222904 23 90 3.2 6.4 0.00 0.00 0.00 81 1020.5
20260905222804 23 45 0.0 0.0 0.00 0.00 0.00 81 1020.5
20260905222703 23 112 3.2 3.2 0.00 0.00 0.00 81 1020.3
20260905222604 23 112 3.2 3.2 0.00 0.00 0.00 81 1020.3
20260905222504 23 90 1.6 3.2 0.00 0.00 0.00 81 1020.4
20260905222403 23 90 1.6 3.2 0.00 0.00 0.00 81 1020.4
20260905222306 23 90 3.2 3.2 0.00 0.00 0.00 81 1020.2
20260905222203 23 68 3.2 3.2 0.00 0.00 0.00 81 1020.3
20260905222104 23 90 3.2 6.4 0.00 0.00 0.00 81 1020.4
20260905222004 23 90 0.0 0.0 0.00 0.00 0.00 81 1020.3
20260905221903 23 45 0.0 0.0 0.00 0.00 0.00 81 1020.5
20260905221804 23 248 0.0 0.0 0.00 0.00 0.00 81 1020.4
20260905221704 23 112 0.0 0.0 0.00 0.00 0.00 81 1020.3
20260905221604 23 45 0.0 0.0 0.00 0.00 0.00 80 1020.4
20260905221504 23 90 0.0 0.0 0.00 0.00 0.00 80 1020.3
20260905221405 23 90 0.0 0.0 0.00 0.00 0.00 80 1020.8
20260905221304 23 112 0.0 0.0 0.00 0.00 0.00 80 1020.4
20260905221205 23 112 0.0 0.0 0.00 0.00 0.00 80 1020.4
20260905221104 23 112 0.0 0.0 0.00 0.00 0.00 80 1020.4
20260905221004 23 112 0.0 0.0 0.00 0.00 0.00 80 1020.4
20260905220904 23 112 0.0 0.0 0.00 0.00 0.00 80 1020.2
20260905220803 23 112 0.0 0.0 0.00 0.00 0.00 80 1020.2
20260905220703 23 135 0.0 0.0 0.00 0.00 0.00 80 1020.3
20260905220603 23 90 0.0 0.0 0.00 0.00 0.00 80 1020.3
20260905220503 23 112 0.0 0.0 0.00 0.00 0.00 80 1020.2
20260905220403 23 90 0.0 0.0 0.00 0.00 0.00 80 1020.2
20260905220303 23 112 0.0 0.0 0.00 0.00 0.00 80 1020.3
20260905220204 23 112 0.0 0.0 0.00 0.00 0.00 80 1020.4
20260905220104 23 135 0.0 0.0 0.00 0.00 0.00 80 1020.4
20260905220005 23 112 0.0 0.0 0.00 0.00 0.00 80 1020.1
20260905215904 23 90 0.0 0.0 0.00 0.00 0.00 80 1020.2
20260905215805 23 90 0.0 0.0 0.00 0.00 0.00 80 1020.0
20260905215704 23 90 0.0 0.0 0.00 0.00 0.00 81 1020.1
20260905215604 23 90 0.0 0.0 0.00 0.00 0.00 81 1020.4
20260905215505 23 90 0.0 0.0 0.00 0.00 0.00 81 1020.1
20260905215404 23 112 0.0 0.0 0.00 0.00 0.00 81 1020.3
20260905215306 23 135 0.0 0.0 0.00 0.00 0.00 81 1020.0
20260905215205 23 158 0.0 0.0 0.00 0.00 0.00 81 1020.2
20260905215104 23 248 0.0 0.0 0.00 0.00 0.00 80 1020.2
20260905215004 23 248 0.0 0.0 0.00 0.00 0.00 80 1020.3
20260905214904 23 270 0.0 0.0 0.00 0.00 0.00 80 1020.2
20260905214804 23 270 0.0 0.0 0.00 0.00 0.00 80 1020.2
20260905214704 23 158 0.0 0.0 0.00 0.00 0.00 80 1019.9
20260905214603 23 90 0.0 0.0 0.00 0.00 0.00 79 1020.2
20260905214504 23 112 0.0 0.0 0.00 0.00 0.00 80 1020.2
20260905214404 23 112 0.0 0.0 0.00 0.00 0.00 80 1019.9
20260905214303 23 270 0.0 0.0 0.00 0.00 0.00 81 1020.2
20260905214204 23 270 0.0 0.0 0.00 0.00 0.00 81 1020.3
20260905214104 23 270 0.0 0.0 0.00 0.00 0.00 80 1020.1
20260905214003 23 248 0.0 0.0 0.00 0.00 0.00 81 1020.1
20260905213904 23 248 0.0 0.0 0.00 0.00 0.00 81 1020.1
20260905213803 23 248 0.0 0.0 0.00 0.00 0.00 81 1020.1
20260905213703 23 248 0.0 0.0 0.00 0.00 0.00 81 1019.8
20260905213603 23 248 0.0 0.0 0.00 0.00 0.00 81 1020.2
20260905213503 23 202 0.0 0.0 0.00 0.00 0.00 81 1020.2
20260905213404 24 225 0.0 0.0 0.00 0.00 0.00 81 1019.9
20260905213304 24 158 0.0 0.0 0.00 0.00 0.00 81 1020.1
20260905213204 24 112 0.0 0.0 0.00 0.00 0.00 82 1020.1
20260905213103 23 112 0.0 0.0 0.00 0.00 0.00 82 1020.1
20260905213005 24 112 0.0 0.0 0.00 0.00 0.00 82 1020.1
20260905212904 24 112 0.0 0.0 0.00 0.00 0.00 82 1020.0
20260905212804 24 135 0.0 0.0 0.00 0.00 0.00 82 1020.1
20260905212704 24 158 0.0 0.0 0.00 0.00 0.00 83 1020.0
20260905212604 24 202 3.2 3.2 0.00 0.00 0.00 83 1020.1
20260905212504 24 225 3.2 3.2 0.00 0.00 0.00 83 1019.8
20260905212404 24 270 3.2 6.4 0.00 0.00 0.00 83 1019.8
20260905212306 24 90 0.0 0.0 0.00 0.00 0.00 83 1019.9
20260905212204 24 68 3.2 3.2 0.00 0.00 0.00 83 1019.9
20260905212103 24 68 3.2 6.4 0.00 0.00 0.00 83 1019.8
20260905212003 24 68 0.0 0.0 0.00 0.00 0.00 83 1020.2
20260905211904 24 90 0.0 0.0 0.00 0.00 0.00 83 1020.0
20260905211804 24 112 0.0 0.0 0.00 0.00 0.00 83 1019.9
20260905211703 24 112 0.0 0.0 0.00 0.00 0.00 83 1020.0
20260905211603 24 112 0.0 0.0 0.00 0.00 0.00 83 1020.0
20260905211503 24 112 0.0 0.0 0.00 0.00 0.00 83 1019.8
20260905211403 24 158 0.0 0.0 0.00 0.00 0.00 83 1020.1
20260905211304 24 112 0.0 0.0 0.00 0.00 0.00 83 1019.7
20260905211203 24 112 0.0 0.0 0.00 0.00 0.00 83 1020.2
20260905211104 24 112 0.0 0.0 0.00 0.00 0.00 83 1020.0
20260905211004 24 112 0.0 0.0 0.00 0.00 0.00 83 1019.9
20260905210905 24 248 0.0 0.0 0.00 0.00 0.00 83 1020.1
20260905210804 24 225 0.0 0.0 0.00 0.00 0.00 83 1019.9
20260905210705 24 225 0.0 0.0 0.00 0.00 0.00 83 1019.9
20260905210604 24 225 0.0 0.0 0.00 0.00 0.00 83 1020.0
20260905210504 24 225 0.0 0.0 0.00 0.00 0.00 83 1019.7
20260905210405 24 225 0.0 0.0 0.00 0.00 0.00 83 1019.9
20260905210304 24 248 0.0 0.0 0.00 0.00 0.00 83 1020.0
20260905210204 24 270 0.0 0.0 0.00 0.00 0.00 83 1020.0
20260905210104 24 68 0.0 0.0 0.00 0.00 0.00 83 1020.0
20260905210004 24 90 0.0 0.0 0.00 0.00 0.00 83 1019.8
20260905205903 25 68 0.0 0.0 0.00 0.00 0.00 83 1019.9
20260905205803 25 68 0.0 0.0 0.00 0.00 0.00 83 1019.9
20260905205704 25 68 0.0 0.0 0.00 0.00 0.00 83 1019.9
20260905205604 24 315 0.0 0.0 0.00 0.00 0.00 83 1019.9
20260905205503 24 292 0.0 0.0 0.00 0.00 0.00 83 1020.0
20260905205403 25 292 0.0 0.0 0.00 0.00 0.00 83 1019.8
20260905205306 25 292 0.0 0.0 0.00 0.00 0.00 83 1020.0
20260905205204 25 292 0.0 0.0 0.00 0.00 0.00 83 1019.8
20260905205104 25 248 0.0 0.0 0.00 0.00 0.00 83 1019.6
20260905205003 25 248 0.0 0.0 0.00 0.00 0.00 83 1019.8
20260905204903 25 248 0.0 0.0 0.00 0.00 0.00 83 1019.8
20260905204804 25 248 0.0 0.0 0.00 0.00 0.00 83 1019.6
20260905204703 25 270 0.0 0.0 0.00 0.00 0.00 82 1019.8
20260905204603 25 292 0.0 0.0 0.00 0.00 0.00 82 1020.1
20260905204503 25 292 0.0 0.0 0.00 0.00 0.00 82 1020.0
20260905204403 25 292 0.0 0.0 0.00 0.00 0.00 82 1019.8
20260905204304 25 292 0.0 0.0 0.00 0.00 0.00 82 1019.8
20260905204203 25 292 0.0 0.0 0.00 0.00 0.00 82 1019.8
20260905204104 25 292 0.0 0.0 0.00 0.00 0.00 82 1019.6
20260905204004 25 315 0.0 0.0 0.00 0.00 0.00 81 1019.9
20260905203904 25 270 0.0 0.0 0.00 0.00 0.00 82 1019.9
20260905203804 25 292 0.0 0.0 0.00 0.00 0.00 81 1019.8
20260905203703 25 68 0.0 0.0 0.00 0.00 0.00 81 1019.7
20260905203604 25 68 0.0 0.0 0.00 0.00 0.00 81 1020.0
20260905203504 25 68 0.0 0.0 0.00 0.00 0.00 81 1019.9
20260905203403 25 68 0.0 0.0 0.00 0.00 0.00 81 1019.9
20260905203304 25 68 0.0 0.0 0.00 0.00 0.00 81 1019.7
20260905203204 25 68 0.0 0.0 0.00 0.00 0.00 81 1019.8
20260905203103 25 68 0.0 0.0 0.00 0.00 0.00 80 1019.9
20260905203003 25 68 0.0 0.0 0.00 0.00 0.00 80 1019.9
20260905202903 25 68 0.0 0.0 0.00 0.00 0.00 80 1019.8
20260905202803 25 68 0.0 0.0 0.00 0.00 0.00 80 1020.1
20260905202704 25 68 0.0 0.0 0.00 0.00 0.00 80 1019.8
20260905202604 25 68 0.0 0.0 0.00 0.00 0.00 80 1019.7
20260905202503 25 68 0.0 0.0 0.00 0.00 0.00 80 1019.9
20260905202403 25 68 0.0 0.0 0.00 0.00 0.00 80 1020.1
20260905202306 25 45 0.0 0.0 0.00 0.00 0.00 80 1019.6
20260905202203 25 68 0.0 0.0 0.00 0.00 0.00 80 1019.9
20260905202104 25 68 0.0 0.0 0.00 0.00 0.00 80 1019.7
20260905202004 25 45 0.0 3.2 0.00 0.00 0.00 80 1019.7
20260905201904 25 45 0.0 0.0 0.00 0.00 0.00 80 1019.9
20260905201804 25 68 0.0 0.0 0.00 0.00 0.00 80 1019.7
20260905201705 25 90 0.0 0.0 0.00 0.00 0.00 80 1019.8
20260905201604 25 90 0.0 0.0 0.00 0.00 0.00 80 1020.0
20260905201504 25 90 0.0 3.2 0.00 0.00 0.00 80 1019.7
20260905201404 25 68 0.0 0.0 0.00 0.00 0.00 80 1019.9
20260905201304 25 68 0.0 0.0 0.00 0.00 0.00 80 1019.7
20260905201204 25 90 0.0 0.0 0.00 0.00 0.00 79 1019.7
20260905201104 25 315 0.0 0.0 0.00 0.00 0.00 79 1019.9
20260905201003 25 270 0.0 3.2 0.00 0.00 0.00 79 1019.7
20260905200903 25 270 0.0 0.0 0.00 0.00 0.00 79 1019.7
20260905200804 25 90 0.0 0.0 0.00 0.00 0.00 79 1019.7
20260905200703 25 270 1.6 3.2 0.00 0.00 0.00 79 1019.9
20260905200603 25 270 0.0 0.0 0.00 0.00 0.00 79 1019.8
20260905200504 25 248 0.0 0.0 0.00 0.00 0.00 79 1019.8
20260905200404 25 270 0.0 3.2 0.00 0.00 0.00 79 1019.6
20260905200303 25 270 0.0 0.0 0.00 0.00 0.00 79 1019.6
20260905200204 25 248 0.0 0.0 0.00 0.00 0.00 79 1019.8
20260905200105 25 270 0.0 3.2 0.00 0.00 0.00 79 1019.8
20260905200004 25 270 0.0 0.0 0.00 0.00 0.00 79 1019.8
20260905195904 25 270 0.0 0.0 0.00 0.00 0.00 79 1019.7
20260905195804 25 270 0.0 0.0 0.00 0.00 0.00 79 1019.7
20260905195705 25 292 0.0 0.0 0.00 0.00 0.00 78 1019.6
20260905195604 25 270 0.0 0.0 0.00 0.00 0.00 78 1019.7
20260905195505 25 270 0.0 0.0 0.00 0.00 0.00 78 1019.8
20260905195404 25 270 0.0 0.0 0.00 0.00 0.00 78 1019.8
20260905195306 25 270 0.0 0.0 0.00 0.00 0.00 78 1019.7
20260905195204 25 270 0.0 0.0 0.00 0.00 0.00 78 1019.6
20260905195104 25 292 0.0 0.0 0.00 0.00 0.00 78 1019.8
20260905195004 25 270 0.0 0.0 0.00 0.00 0.00 78 1019.7
20260905194904 25 270 0.0 0.0 0.00 0.00 0.00 78 1019.9
20260905194804 25 270 0.0 0.0 0.00 0.00 0.00 78 1019.9
20260905194704 25 45 1.6 3.2 0.00 0.00 0.00 78 1019.9
20260905194604 25 292 0.0 0.0 0.00 0.00 0.00 78 1019.9
20260905194504 25 270 0.0 0.0 0.00 0.00 0.00 78 1019.9
20260905194403 25 292 0.0 0.0 0.00 0.00 0.00 78 1019.8
20260905194304 25 270 1.6 3.2 0.00 0.00 0.00 78 1019.8
20260905194204 25 292 3.2 6.4 0.00 0.00 0.00 78 1019.6
20260905194103 25 292 0.0 0.0 0.00 0.00 0.00 78 1019.7
20260905194004 25 270 0.0 0.0 0.00 0.00 0.00 78 1019.6
20260905193903 25 292 0.0 0.0 0.00 0.00 0.00 78 1019.9
20260905193803 25 292 0.0 3.2 0.00 0.00 0.00 78 1019.8
20260905193704 25 248 3.2 3.2 0.00 0.00 0.00 78 1019.7
20260905193603 25 292 1.6 3.2 0.00 0.00 0.00 78 1019.7
20260905193503 25 270 0.0 0.0 0.00 0.00 0.00 78 1019.8
20260905193403 25 270 0.0 0.0 0.00 0.00 0.00 78 1019.8
20260905193304 25 270 0.0 0.0 0.00 0.00 0.00 78 1019.7
20260905193203 25 270 0.0 0.0 0.00 0.00 0.00 78 1019.6
20260905193104 25 270 0.0 0.0 0.00 0.00 0.00 78 1019.6
20260905193004 25 270 0.0 0.0 0.00 0.00 0.00 78 1019.7
20260905192903 25 270 1.6 3.2 0.00 0.00 0.00 77 1019.5
20260905192804 25 292 1.6 3.2 0.00 0.00 0.00 77 1019.5
20260905192704 25 248 0.0 0.0 0.00 0.00 0.00 77 1019.4
20260905192604 25 248 0.0 0.0 0.00 0.00 0.00 77 1019.5
20260905192504 25 270 0.0 0.0 0.00 0.00 0.00 77 1019.5
20260905192404 25 270 0.0 0.0 0.00 0.00 0.00 77 1019.8
20260905192306 25 270 0.0 3.2 0.00 0.00 0.00 77 1019.5
20260905192204 25 270 0.0 0.0 0.00 0.00 0.00 77 1019.5
20260905192103 25 270 0.0 0.0 0.00 0.00 0.00 77 1019.5
20260905192004 25 248 1.6 6.4 0.00 0.00 0.00 77 1019.6
20260905191903 25 292 3.2 6.4 0.00 0.00 0.00 77 1019.7
20260905191803 25 292 1.6 3.2 0.00 0.00 0.00 77 1019.6
20260905191704 25 292 0.0 0.0 0.00 0.00 0.00 77 1019.6
20260905191604 25 270 1.6 3.2 0.00 0.00 0.00 77 1019.4
20260905191504 26 292 3.2 6.4 0.00 0.00 0.00 77 1019.6
20260905191404 26 270 1.6 3.2 0.00 0.00 0.00 77 1019.4
20260905191303 26 270 0.0 3.2 0.00 0.00 0.00 77 1019.3
20260905191203 25 270 3.2 3.2 0.00 0.00 0.00 77 1019.3
20260905191104 26 292 1.6 6.4 0.00 0.00 0.00 77 1019.3
20260905191004 25 248 3.2 6.4 0.00 0.00 0.00 77 1019.4
20260905190904 26 292 1.6 6.4 0.00 0.00 0.00 77 1019.5
20260905190804 25 68 1.6 3.2 0.00 0.00 0.00 76 1019.6
20260905190704 26 292 0.0 3.2 0.00 0.00 0.00 76 1019.4
20260905190604 26 248 0.0 0.0 0.00 0.00 0.00 76 1019.5
20260905190504 26 270 0.0 0.0 0.00 0.00 0.00 76 1019.5
20260905190404 26 248 0.0 0.0 0.00 0.00 0.00 76 1019.4
20260905190304 26 248 0.0 0.0 0.00 0.00 0.00 76 1019.3
20260905190204 26 270 1.6 3.2 0.00 0.00 0.00 76 1019.3
20260905190104 26 292 1.6 6.4 0.00 0.00 0.00 76 1019.3
20260905190004 26 270 0.0 0.0 0.00 0.00 0.00 76 1019.5
20260905185904 26 248 0.0 3.2 0.00 0.00 0.00 76 1019.5
20260905185804 26 270 1.6 3.2 0.00 0.00 0.00 76 1019.4
20260905185704 26 248 0.0 0.0 0.00 0.00 0.00 76 1019.2
20260905185604 26 248 0.0 3.2 0.00 0.00 0.00 76 1019.3
20260905185503 26 90 0.0 0.0 0.00 0.00 0.00 76 1019.4
20260905185404 26 248 0.0 3.2 0.00 0.00 0.00 76 1019.4
20260905185306 26 292 0.0 3.2 0.00 0.00 0.00 76 1019.4
20260905185204 26 292 3.2 3.2 0.00 0.00 0.00 76 1019.2
20260905185104 26 292 0.0 3.2 0.00 0.00 0.00 76 1019.3
20260905185003 26 270 0.0 3.2 0.00 0.00 0.00 76 1019.2
20260905184904 26 45 0.0 0.0 0.00 0.00 0.00 75 1019.5
20260905184803 26 248 0.0 3.2 0.00 0.00 0.00 75 1019.3
20260905184604 26 225 0.0 0.0 0.00 0.00 0.00 75 1019.4
20260905184503 26 270 0.0 0.0 0.00 0.00 0.00 75 1019.5
20260905184404 26 180 0.0 0.0 0.00 0.00 0.00 75 1019.4
20260905184303 26 248 1.6 3.2 0.00 0.00 0.00 75 1019.3
20260905184203 26 68 1.6 3.2 0.00 0.00 0.00 75 1019.4
20260905184104 26 292 3.2 6.4 0.00 0.00 0.00 75 1019.4
20260905184004 26 90 3.2 6.4 0.00 0.00 0.00 75 1019.3
20260905183904 26 292 3.2 6.4 0.00 0.00 0.00 75 1019.3
20260905183804 26 292 3.2 6.4 0.00 0.00 0.00 75 1019.4
20260905183704 26 270 3.2 6.4 0.00 0.00 0.00 75 1019.2
20260905183603 26 270 0.0 3.2 0.00 0.00 0.00 75 1019.2
20260905183504 26 270 3.2 6.4 0.00 0.00 0.00 75 1019.2
20260905183404 26 270 3.2 6.4 0.00 0.00 0.00 75 1019.2
20260905183305 26 270 3.2 6.4 0.00 0.00 0.00 75 1019.2
20260905183204 26 292 3.2 6.4 0.00 0.00 0.00 75 1019.1
20260905183104 26 68 3.2 3.2 0.00 0.00 0.00 75 1019.2
20260905183004 26 292 3.2 6.4 0.00 0.00 0.00 75 1019.3
20260905182903 26 315 3.2 9.7 0.00 0.00 0.00 75 1019.2
20260905182804 26 248 3.2 6.4 0.00 0.00 0.00 75 1019.1
20260905182703 26 22 1.6 3.2 0.00 0.00 0.00 75 1019.2
20260905182603 26 292 3.2 6.4 0.00 0.00 0.00 74 1019.1
20260905182503 26 292 3.2 6.4 0.00 0.00 0.00 74 1019.3
20260905182403 26 292 4.8 9.7 0.00 0.00 0.00 74 1019.2
20260905182306 26 292 3.2 6.4 0.00 0.00 0.00 74 1019.2
20260905182204 26 292 1.6 6.4 0.00 0.00 0.00 74 1019.4
20260905182104 26 315 4.8 9.7 0.00 0.00 0.00 74 1019.2
20260905182004 26 292 4.8 6.4 0.00 0.00 0.00 74 1019.2
20260905181904 26 315 6.4 9.7 0.00 0.00 0.00 74 1019.3
20260905181804 26 292 3.2 6.4 0.00 0.00 0.00 74 1018.9
20260905181704 26 292 3.2 11.3 0.00 0.00 0.00 74 1018.9
20260905181604 26 292 4.8 6.4 0.00 0.00 0.00 74 1019.0
20260905181504 26 292 1.6 3.2 0.00 0.00 0.00 73 1019.1
20260905181404 26 248 3.2 6.4 0.00 0.00 0.00 73 1019.2
20260905181305 26 270 3.2 6.4 0.00 0.00 0.00 73 1019.0
20260905181204 26 112 1.6 3.2 0.00 0.00 0.00 73 1019.1
20260905181103 26 270 3.2 3.2 0.00 0.00 0.00 73 1019.1
20260905181004 26 202 1.6 6.4 0.00 0.00 0.00 73 1019.0
20260905180904 26 292 3.2 9.7 0.00 0.00 0.00 73 1019.0
20260905180804 26 292 3.2 3.2 0.00 0.00 0.00 73 1019.1
20260905180704 26 270 3.2 6.4 0.00 0.00 0.00 73 1019.1
20260905180603 26 292 6.4 11.3 0.00 0.00 0.00 72 1019.0
20260905180504 27 315 1.6 6.4 0.00 0.00 0.00 72 1019.1
20260905180404 27 315 1.6 6.4 0.00 0.00 0.00 72 1018.8
20260905180304 27 315 1.6 6.4 0.00 0.00 0.00 72 1019.0
20260905180204 27 315 1.6 6.4 0.00 0.00 0.00 72 1018.8
20260905180104 27 315 1.6 6.4 0.00 0.00 0.00 72 1019.0
20260905180004 27 315 1.6 6.4 0.00 0.00 0.00 72 1019.0
20260905175904 27 90 0.0 0.0 0.00 0.00 0.00 71 1018.7
20260905175804 27 292 3.2 6.4 0.00 0.00 0.00 71 1019.1
20260905175704 27 0 0.0 0.0 0.00 0.00 0.00 71 1019.0
20260905175604 27 45 0.0 3.2 0.00 0.00 0.00 71 1018.8
20260905175505 27 90 0.0 3.2 0.00 0.00 0.00 71 1019.0
20260905175404 27 90 3.2 6.4 0.00 0.00 0.00 71 1018.8
20260905175306 27 248 4.8 6.4 0.00 0.00 0.00 71 1018.9
20260905175205 27 292 3.2 9.7 0.00 0.00 0.00 71 1019.1
20260905175104 27 112 0.0 0.0 0.00 0.00 0.00 71 1018.9
20260905175004 27 45 1.6 6.4 0.00 0.00 0.00 70 1019.1
20260905174903 27 90 1.6 3.2 0.00 0.00 0.00 70 1018.9
20260905174804 27 68 1.6 3.2 0.00 0.00 0.00 70 1018.9
20260905174704 27 315 1.6 3.2 0.00 0.00 0.00 70 1018.8
20260905174603 27 270 3.2 6.4 0.00 0.00 0.00 70 1018.9
20260905174503 27 338 3.2 6.4 0.00 0.00 0.00 70 1018.9
20260905174404 27 270 3.2 6.4 0.00 0.00 0.00 70 1018.9
20260905174304 27 315 1.6 6.4 0.00 0.00 0.00 70 1018.9
20260905174204 27 292 3.2 6.4 0.00 0.00 0.00 70 1018.5
20260905174103 27 315 3.2 6.4 0.00 0.00 0.00 70 1018.9
20260905174004 27 292 3.2 9.7 0.00 0.00 0.00 70 1018.6
20260905173903 27 270 3.2 6.4 0.00 0.00 0.00 70 1018.8
20260905173803 27 248 4.8 9.7 0.00 0.00 0.00 70 1018.8
20260905173704 27 248 4.8 9.7 0.00 0.00 0.00 70 1018.6
20260905173603 27 315 3.2 6.4 0.00 0.00 0.00 70 1018.9
20260905173503 27 158 1.6 3.2 0.00 0.00 0.00 70 1018.9
20260905173404 27 68 0.0 3.2 0.00 0.00 0.00 70 1018.7
20260905173304 27 68 1.6 3.2 0.00 0.00 0.00 69 1018.9
20260905173203 27 338 1.6 3.2 0.00 0.00 0.00 69 1018.8
20260905173104 27 0 3.2 9.7 0.00 0.00 0.00 69 1018.9
20260905173005 28 292 3.2 6.4 0.00 0.00 0.00 69 1018.5
20260905172904 28 292 3.2 6.4 0.00 0.00 0.00 69 1018.9
20260905172804 28 0 1.6 6.4 0.00 0.00 0.00 69 1018.7
20260905172704 28 135 1.6 3.2 0.00 0.00 0.00 69 1018.8
20260905172604 28 202 0.0 0.0 0.00 0.00 0.00 69 1018.7
20260905172504 28 248 1.6 3.2 0.00 0.00 0.00 69 1018.9
20260905172404 28 270 1.6 3.2 0.00 0.00 0.00 69 1018.8
20260905172305 28 90 1.6 3.2 0.00 0.00 0.00 69 1018.7
20260905172204 28 248 3.2 6.4 0.00 0.00 0.00 69 1018.8
20260905172104 28 292 3.2 6.4 0.00 0.00 0.00 69 1018.7
20260905172004 28 248 4.8 9.7 0.00 0.00 0.00 69 1018.6
20260905171903 28 292 4.8 6.4 0.00 0.00 0.00 68 1018.5
20260905171803 28 292 6.4 12.9 0.00 0.00 0.00 68 1018.8
20260905171703 28 292 4.8 14.5 0.00 0.00 0.00 68 1018.7
20260905171604 28 292 11.3 17.7 0.00 0.00 0.00 68 1018.7
20260905171504 28 292 6.4 12.9 0.00 0.00 0.00 68 1018.8
20260905171404 28 292 3.2 6.4 0.00 0.00 0.00 68 1018.7
20260905171303 28 68 3.2 6.4 0.00 0.00 0.00 68 1018.6
20260905171203 28 270 3.2 6.4 0.00 0.00 0.00 68 1018.7
20260905171104 28 202 3.2 6.4 0.00 0.00 0.00 68 1018.7
20260905171004 28 315 4.8 11.3 0.00 0.00 0.00 68 1018.6
20260905170904 28 270 9.7 14.5 0.00 0.00 0.00 68 1018.8
20260905170804 28 292 8.0 14.5 0.00 0.00 0.00 67 1018.8
20260905170706 28 248 9.7 14.5 0.00 0.00 0.00 67 1018.6
20260905170604 28 338 6.4 12.9 0.00 0.00 0.00 67 1018.7
20260905170504 28 292 8.0 14.5 0.00 0.00 0.00 67 1018.6
20260905170404 28 292 8.0 14.5 0.00 0.00 0.00 67 1018.6
20260905170304 28 270 3.2 6.4 0.00 0.00 0.00 66 1018.7
20260905170204 28 292 8.0 12.9 0.00 0.00 0.00 66 1018.7
20260905170004 28 292 6.4 9.7 0.00 0.00 0.00 66 1018.7
20260905165904 28 248 3.2 11.3 0.00 0.00 0.00 65 1018.6
20260905165804 28 292 11.3 14.5 0.00 0.00 0.00 65 1018.5
20260905165704 29 270 11.3 17.7 0.00 0.00 0.00 64 1018.8
20260905165603 29 292 3.2 14.5 0.00 0.00 0.00 64 1018.6
20260905165504 29 270 4.8 9.7 0.00 0.00 0.00 63 1018.5
20260905165403 29 180 1.6 3.2 0.00 0.00 0.00 62 1018.9
20260905165306 29 112 3.2 6.4 0.00 0.00 0.00 62 1018.5
20260905165203 30 270 6.4 9.7 0.00 0.00 0.00 62 1018.5
20260905165104 30 292 4.8 6.4 0.00 0.00 0.00 61 1018.7
20260905165004 30 248 1.6 3.2 0.00 0.00 0.00 60 1018.7
20260905164904 30 22 3.2 6.4 0.00 0.00 0.00 60 1018.5
20260905164804 30 292 3.2 6.4 0.00 0.00 0.00 59 1018.6
20260905164704 30 45 3.2 6.4 0.00 0.00 0.00 59 1018.7
20260905164604 30 338 6.4 12.9 0.00 0.00 0.00 59 1018.7
20260905164504 30 225 0.0 0.0 0.00 0.00 0.00 59 1018.7
20260905164404 30 68 0.0 3.2 0.00 0.00 0.00 58 1018.8
20260905164304 30 45 3.2 6.4 0.00 0.00 0.00 58 1018.9
20260905164205 30 292 3.2 9.7 0.00 0.00 0.00 58 1018.7
20260905164104 30 270 3.2 11.3 0.00 0.00 0.00 58 1018.9
20260905164004 30 315 3.2 6.4 0.00 0.00 0.00 58 1018.8
20260905163904 30 68 3.2 6.4 0.00 0.00 0.00 58 1018.8
20260905163803 30 90 3.2 6.4 0.00 0.00 0.00 58 1018.7
20260905163704 30 68 3.2 6.4 0.00 0.00 0.00 58 1018.5
20260905163603 30 338 1.6 3.2 0.00 0.00 0.00 58 1018.8
20260905163504 30 135 3.2 6.4 0.00 0.00 0.00 58 1018.7
20260905163404 30 292 3.2 9.7 0.00 0.00 0.00 58 1018.9
20260905163304 30 292 1.6 6.4 0.00 0.00 0.00 58 1018.8
20260905163204 30 90 3.2 6.4 0.00 0.00 0.00 58 1018.9
20260905163103 30 270 3.2 6.4 0.00 0.00 0.00 58 1018.8
20260905163003 30 68 3.2 11.3 0.00 0.00 0.00 58 1018.9
20260905162903 30 68 1.6 3.2 0.00 0.00 0.00 58 1018.6
20260905162803 30 315 1.6 6.4 0.00 0.00 0.00 58 1018.8
20260905162704 30 292 1.6 3.2 0.00 0.00 0.00 58 1018.7
20260905162603 30 45 6.4 9.7 0.00 0.00 0.00 58 1018.9
20260905162503 30 292 3.2 11.3 0.00 0.00 0.00 59 1019.0
20260905162403 30 45 1.6 3.2 0.00 0.00 0.00 59 1018.6
20260905162305 30 292 6.4 14.5 0.00 0.00 0.00 59 1018.7
20260905162203 30 270 3.2 6.4 0.00 0.00 0.00 59 1018.5
20260905162104 30 292 6.4 17.7 0.00 0.00 0.00 59 1018.7
20260905162004 30 112 3.2 6.4 0.00 0.00 0.00 59 1018.7
20260905161904 30 292 6.4 14.5 0.00 0.00 0.00 58 1018.7
20260905161803 30 270 6.4 12.9 0.00 0.00 0.00 58 1018.5
20260905161704 30 315 3.2 12.9 0.00 0.00 0.00 59 1018.8
20260905161604 30 248 6.4 17.7 0.00 0.00 0.00 59 1018.6
20260905161504 30 292 1.6 3.2 0.00 0.00 0.00 60 1018.7
20260905161404 30 180 4.8 11.3 0.00 0.00 0.00 60 1018.8
20260905161303 30 292 6.4 6.4 0.00 0.00 0.00 60 1018.6
20260905161204 30 292 6.4 12.9 0.00 0.00 0.00 59 1018.6
20260905161104 30 225 0.0 3.2 0.00 0.00 0.00 60 1018.7
20260905161003 30 68 3.2 6.4 0.00 0.00 0.00 60 1018.8
20260905160903 30 68 11.3 17.7 0.00 0.00 0.00 60 1018.6
20260905160804 30 248 8.0 12.9 0.00 0.00 0.00 59 1018.4
20260905160703 30 315 6.4 11.3 0.00 0.00 0.00 58 1018.7
20260905160604 30 270 4.8 9.7 0.00 0.00 0.00 57 1018.7
20260905160504 30 270 6.4 12.9 0.00 0.00 0.00 57 1018.8
20260905160403 30 270 4.8 6.4 0.00 0.00 0.00 57 1018.8
20260905160304 30 68 3.2 9.7 0.00 0.00 0.00 58 1018.7
20260905160204 30 292 9.7 17.7 0.00 0.00 0.00 57 1018.3
20260905160104 30 292 6.4 11.3 0.00 0.00 0.00 58 1018.5
20260905160004 30 248 3.2 3.2 0.00 0.00 0.00 58 1018.6
20260905155904 30 45 8.0 17.7 0.00 0.00 0.00 58 1018.7
20260905155805 30 292 4.8 12.9 0.00 0.00 0.00 58 1018.8
20260905155704 30 225 1.6 3.2 0.00 0.00 0.00 59 1018.7
20260905155604 30 90 3.2 3.2 0.00 0.00 0.00 58 1018.6
20260905155504 30 135 3.2 11.3 0.00 0.00 0.00 58 1018.7
20260905155404 30 180 3.2 11.3 0.00 0.00 0.00 58 1018.5
20260905155306 30 225 3.2 3.2 0.00 0.00 0.00 58 1018.8
20260905155204 30 315 3.2 9.7 0.00 0.00 0.00 58 1018.7
20260905155103 30 315 4.8 6.4 0.00 0.00 0.00 58 1018.6
20260905155004 30 270 8.0 17.7 0.00 0.00 0.00 58 1018.5
20260905154904 30 270 12.9 20.9 0.00 0.00 0.00 58 1018.4
20260905154804 30 270 11.3 17.7 0.00 0.00 0.00 58 1018.5
20260905154703 30 248 9.7 14.5 0.00 0.00 0.00 57 1018.6
20260905154603 30 292 4.8 12.9 0.00 0.00 0.00 58 1018.6
20260905154504 30 45 6.4 11.3 0.00 0.00 0.00 59 1018.6
20260905154404 30 270 9.7 20.9 0.00 0.00 0.00 59 1018.6
20260905154304 30 315 6.4 12.9 0.00 0.00 0.00 59 1018.7
20260905154204 30 270 12.9 17.7 0.00 0.00 0.00 59 1018.6
20260905154105 30 292 6.4 12.9 0.00 0.00 0.00 60 1018.7
20260905154004 30 270 6.4 17.7 0.00 0.00 0.00 60 1018.6
20260905153905 30 225 6.4 17.7 0.00 0.00 0.00 60 1018.7
20260905153805 30 270 9.7 12.9 0.00 0.00 0.00 60 1018.3
20260905153704 30 292 4.8 9.7 0.00 0.00 0.00 60 1018.7
20260905153604 30 292 8.0 17.7 0.00 0.00 0.00 60 1018.6
20260905153503 30 292 6.4 14.5 0.00 0.00 0.00 59 1018.5
20260905153404 30 292 12.9 17.7 0.00 0.00 0.00 59 1018.4
20260905153305 30 270 14.5 17.7 0.00 0.00 0.00 59 1018.6
20260905153204 30 292 6.4 12.9 0.00 0.00 0.00 60 1018.7
20260905153104 30 248 4.8 9.7 0.00 0.00 0.00 60 1018.5
20260905153004 30 292 8.0 12.9 0.00 0.00 0.00 60 1018.4
20260905152904 29 248 14.5 20.9 0.00 0.00 0.00 60 1018.6
20260905152804 30 270 12.9 20.9 0.00 0.00 0.00 60 1018.5
20260905152704 30 270 8.0 12.9 0.00 0.00 0.00 60 1018.6
20260905152603 30 270 11.3 17.7 0.00 0.00 0.00 60 1018.6
20260905152503 30 292 12.9 20.9 0.00 0.00 0.00 60 1018.3
20260905152404 30 292 8.0 12.9 0.00 0.00 0.00 60 1018.5
20260905152306 30 225 11.3 14.5 0.00 0.00 0.00 60 1018.5
20260905152204 30 292 11.3 20.9 0.00 0.00 0.00 60 1018.5
20260905152105 30 292 11.3 17.7 0.00 0.00 0.00 59 1018.6
20260905152004 30 292 12.9 22.5 0.00 0.00 0.00 58 1018.7
20260905151904 30 270 11.3 14.5 0.00 0.00 0.00 57 1018.5
20260905151805 30 315 11.3 17.7 0.00 0.00 0.00 57 1018.4
20260905151704 30 292 11.3 17.7 0.00 0.00 0.00 57 1018.5
20260905151604 30 292 11.3 17.7 0.00 0.00 0.00 57 1018.6
20260905151504 30 270 8.0 11.3 0.00 0.00 0.00 58 1018.4
20260905151404 30 270 12.9 17.7 0.00 0.00 0.00 58 1018.7
20260905151305 30 292 16.1 22.5 0.00 0.00 0.00 57 1018.5
20260905151204 31 292 16.1 24.1 0.00 0.00 0.00 56 1018.6
20260905151104 31 292 6.4 9.7 0.00 0.00 0.00 55 1018.6
20260905151004 31 270 3.2 6.4 0.00 0.00 0.00 55 1018.6
20260905150904 31 270 1.6 3.2 0.00 0.00 0.00 55 1018.5
20260905150804 31 135 3.2 6.4 0.00 0.00 0.00 55 1018.6
20260905150704 31 292 6.4 12.9 0.00 0.00 0.00 54 1018.7
20260905150604 31 45 4.8 9.7 0.00 0.00 0.00 54 1018.7
20260905150503 31 292 6.4 14.5 0.00 0.00 0.00 54 1018.6
20260905150403 31 45 6.4 12.9 0.00 0.00 0.00 55 1018.5
20260905150304 32 22 3.2 9.7 0.00 0.00 0.00 56 1018.6
20260905150204 32 292 6.4 9.7 0.00 0.00 0.00 55 1018.9
20260905150103 32 292 8.0 12.9 0.00 0.00 0.00 55 1018.4
20260905150003 32 112 3.2 3.2 0.00 0.00 0.00 55 1018.7
20260905145903 32 248 3.2 6.4 0.00 0.00 0.00 56 1018.5
20260905145804 32 270 3.2 6.4 0.00 0.00 0.00 55 1018.8
20260905145703 32 90 3.2 6.4 0.00 0.00 0.00 56 1018.8
20260905145604 32 112 1.6 3.2 0.00 0.00 0.00 56 1018.7
20260905145504 32 90 0.0 3.2 0.00 0.00 0.00 56 1018.6
20260905145404 31 90 0.0 0.0 0.00 0.00 0.00 56 1018.5
20260905145306 31 68 1.6 3.2 0.00 0.00 0.00 56 1018.7
20260905145203 31 45 1.6 3.2 0.00 0.00 0.00 56 1018.7
20260905145104 31 112 3.2 3.2 0.00 0.00 0.00 56 1018.5
20260905145003 32 90 1.6 3.2 0.00 0.00 0.00 56 1018.8
20260905144904 31 68 1.6 6.4 0.00 0.00 0.00 55 1018.7
20260905144804 31 68 3.2 6.4 0.00 0.00 0.00 55 1018.5
20260905144704 31 90 1.6 3.2 0.00 0.00 0.00 55 1018.6
20260905144604 31 68 3.2 6.4 0.00 0.00 0.00 55 1018.7
20260905144504 31 68 3.2 6.4 0.00 0.00 0.00 55 1018.7
20260905144404 31 292 4.8 9.7 0.00 0.00 0.00 55 1018.7
20260905144304 31 270 4.8 9.7 0.00 0.00 0.00 56 1018.7
20260905144204 31 202 4.8 11.3 0.00 0.00 0.00 55 1018.6
20260905144104 31 270 3.2 9.7 0.00 0.00 0.00 56 1018.8
20260905144004 31 45 1.6 3.2 0.00 0.00 0.00 57 1018.7
20260905143904 31 292 6.4 12.9 0.00 0.00 0.00 56 1018.6
20260905143804 31 45 3.2 12.9 0.00 0.00 0.00 57 1018.6
20260905143703 31 45 6.4 17.7 0.00 0.00 0.00 58 1018.7
20260905143604 31 90 3.2 3.2 0.00 0.00 0.00 59 1018.6
20260905143504 31 68 3.2 6.4 0.00 0.00 0.00 59 1018.9
20260905143404 31 292 8.0 11.3 0.00 0.00 0.00 59 1018.6
20260905143303 31 270 9.7 14.5 0.00 0.00 0.00 59 1018.5
20260905143204 31 292 9.7 12.9 0.00 0.00 0.00 58 1018.8
20260905141504 31 292 6.4 11.3 0.00 0.00 0.00 54 1018.7
20260905141404 32 292 11.3 14.5 0.00 0.00 0.00 54 1018.7
20260905141304 32 292 8.0 14.5 0.00 0.00 0.00 54 1018.8
20260905141204 32 68 3.2 6.4 0.00 0.00 0.00 55 1018.7
20260905141103 32 90 0.0 3.2 0.00 0.00 0.00 55 1018.8
20260905141004 32 225 3.2 6.4 0.00 0.00 0.00 55 1018.8
20260905140903 32 68 3.2 6.4 0.00 0.00 0.00 55 1018.7
20260905140803 32 112 3.2 12.9 0.00 0.00 0.00 55 1018.7
20260905140703 32 45 3.2 11.3 0.00 0.00 0.00 55 1018.8
20260905140604 32 270 4.8 11.3 0.00 0.00 0.00 54 1018.7
20260905140503 32 90 0.0 3.2 0.00 0.00 0.00 55 1018.8
20260905140403 32 338 0.0 3.2 0.00 0.00 0.00 55 1019.1
20260905140303 32 292 8.0 14.5 0.00 0.00 0.00 54 1018.8
20260905140204 32 270 3.2 11.3 0.00 0.00 0.00 54 1018.8
20260905140104 32 68 1.6 3.2 0.00 0.00 0.00 54 1018.8
20260905140004 32 248 3.2 6.4 0.00 0.00 0.00 54 1019.0
20260905135903 32 68 3.2 9.7 0.00 0.00 0.00 55 1019.0
20260905135804 32 270 6.4 11.3 0.00 0.00 0.00 54 1018.9
20260905135704 32 292 3.2 12.9 0.00 0.00 0.00 55 1018.9
20260905135604 32 270 1.6 3.2 0.00 0.00 0.00 56 1018.9
20260905135504 31 90 6.4 12.9 0.00 0.00 0.00 56 1019.1
20260905135404 31 292 8.0 11.3 0.00 0.00 0.00 55 1018.9
20260905135306 31 270 4.8 9.7 0.00 0.00 0.00 56 1018.8
20260905135204 31 202 4.8 9.7 0.00 0.00 0.00 56 1019.0
20260905135104 31 270 4.8 12.9 0.00 0.00 0.00 55 1019.0
20260905135003 31 248 12.9 17.7 0.00 0.00 0.00 55 1018.9
20260905134904 31 292 3.2 12.9 0.00 0.00 0.00 55 1018.7
20260905134804 31 68 0.0 3.2 0.00 0.00 0.00 56 1018.9
20260905134704 31 112 0.0 3.2 0.00 0.00 0.00 56 1019.0
20260905134603 31 248 6.4 11.3 0.00 0.00 0.00 56 1019.0
20260905134503 31 292 6.4 9.7 0.00 0.00 0.00 55 1019.1
20260905134404 31 292 6.4 12.9 0.00 0.00 0.00 55 1018.9
20260905134303 31 68 1.6 3.2 0.00 0.00 0.00 56 1019.2
20260905134203 31 315 6.4 11.3 0.00 0.00 0.00 56 1019.2
20260905134104 31 270 4.8 11.3 0.00 0.00 0.00 56 1019.2
20260905134004 31 292 8.0 17.7 0.00 0.00 0.00 55 1019.3
20260905133904 31 270 6.4 12.9 0.00 0.00 0.00 56 1019.0
20260905133804 31 68 1.6 3.2 0.00 0.00 0.00 57 1019.2
20260905133704 31 68 3.2 6.4 0.00 0.00 0.00 57 1019.2
20260905133604 31 315 12.9 17.7 0.00 0.00 0.00 56 1019.1
20260905133504 31 68 4.8 12.9 0.00 0.00 0.00 56 1019.0
20260905133404 31 135 3.2 9.7 0.00 0.00 0.00 56 1019.3
20260905133303 31 315 6.4 14.5 0.00 0.00 0.00 56 1019.1
20260905133204 31 315 6.4 14.5 0.00 0.00 0.00 57 1019.1
20260905133106 31 90 0.0 3.2 0.00 0.00 0.00 58 1019.3
20260905133005 31 68 1.6 3.2 0.00 0.00 0.00 58 1019.3
20260905132903 31 135 4.8 11.3 0.00 0.00 0.00 58 1019.3
20260905132804 31 270 6.4 11.3 0.00 0.00 0.00 57 1019.3
20260905132704 31 248 4.8 6.4 0.00 0.00 0.00 56 1019.3
20260905132604 31 292 9.7 11.3 0.00 0.00 0.00 56 1019.0
20260905132504 31 292 9.7 11.3 0.00 0.00 0.00 55 1019.3
20260905132404 31 270 12.9 14.5 0.00 0.00 0.00 55 1019.1
20260905132305 31 248 6.4 9.7 0.00 0.00 0.00 53 1019.1
20260905132204 31 90 6.4 9.7 0.00 0.00 0.00 54 1019.1
20260905132104 31 248 4.8 6.4 0.00 0.00 0.00 53 1019.1
20260905132004 31 248 9.7 12.9 0.00 0.00 0.00 53 1019.2
20260905131903 32 270 3.2 6.4 0.00 0.00 0.00 52 1019.2
20260905131804 32 270 4.8 11.3 0.00 0.00 0.00 52 1019.4
20260905131703 32 270 3.2 12.9 0.00 0.00 0.00 52 1019.3
20260905131603 32 270 6.4 14.5 0.00 0.00 0.00 53 1019.4
20260905131503 32 248 3.2 6.4 0.00 0.00 0.00 53 1019.2
20260905131404 32 90 1.6 3.2 0.00 0.00 0.00 53 1019.2
20260905131303 32 22 6.4 12.9 0.00 0.00 0.00 52 1019.2
20260905131203 32 315 3.2 12.9 0.00 0.00 0.00 52 1019.2
20260905131104 32 68 3.2 3.2 0.00 0.00 0.00 53 1019.4
20260905131004 32 270 6.4 14.5 0.00 0.00 0.00 52 1019.4
20260905130904 32 68 3.2 11.3 0.00 0.00 0.00 53 1019.4
20260905130804 32 315 4.8 14.5 0.00 0.00 0.00 52 1019.2
20260905130704 32 270 3.2 9.7 0.00 0.00 0.00 52 1019.2
20260905130604 32 22 1.6 3.2 0.00 0.00 0.00 52 1019.5
20260905130504 32 225 1.6 3.2 0.00 0.00 0.00 51 1019.3
20260905130404 32 225 4.8 9.7 0.00 0.00 0.00 52 1019.4
20260905130304 32 202 3.2 9.7 0.00 0.00 0.00 53 1019.5
20260905130205 31 292 6.4 11.3 0.00 0.00 0.00 53 1019.6
20260905130104 31 270 1.6 11.3 0.00 0.00 0.00 55 1019.5
20260905130003 31 292 3.2 6.4 0.00 0.00 0.00 55 1019.4
20260905125904 31 248 3.2 6.4 0.00 0.00 0.00 56 1019.5
20260905125804 31 315 3.2 3.2 0.00 0.00 0.00 56 1019.4
20260905125703 31 270 8.0 17.7 0.00 0.00 0.00 56 1019.5
20260905125604 31 270 8.0 17.7 0.00 0.00 0.00 56 1019.4
20260905125504 31 315 6.4 12.9 0.00 0.00 0.00 56 1019.7
20260905125403 31 270 11.3 17.7 0.00 0.00 0.00 56 1019.5
20260905125306 31 292 4.8 12.9 0.00 0.00 0.00 55 1019.4
20260905125204 31 202 1.6 6.4 0.00 0.00 0.00 56 1019.6
20260905125103 31 68 1.6 3.2 0.00 0.00 0.00 57 1019.6
20260905125004 31 68 3.2 6.4 0.00 0.00 0.00 57 1019.6
20260905124904 31 68 6.4 11.3 0.00 0.00 0.00 56 1019.4
20260905124803 31 202 3.2 3.2 0.00 0.00 0.00 57 1019.4
20260905124703 31 292 4.8 9.7 0.00 0.00 0.00 56 1019.5
20260905124604 31 270 9.7 12.9 0.00 0.00 0.00 56 1019.6
20260905124503 31 292 6.4 14.5 0.00 0.00 0.00 55 1019.6
20260905124404 31 270 9.7 17.7 0.00 0.00 0.00 55 1019.7
20260905124303 32 292 6.4 20.9 0.00 0.00 0.00 54 1019.3
20260905124203 32 270 3.2 6.4 0.00 0.00 0.00 55 1019.7
20260905124104 32 270 1.6 3.2 0.00 0.00 0.00 56 1019.4
20260905124004 32 68 3.2 9.7 0.00 0.00 0.00 56 1019.6
20260905123904 32 68 3.2 3.2 0.00 0.00 0.00 56 1019.5
20260905123803 32 270 3.2 3.2 0.00 0.00 0.00 56 1019.6
20260905123703 32 90 3.2 9.7 0.00 0.00 0.00 57 1019.5
20260905123604 31 68 4.8 14.5 0.00 0.00 0.00 57 1019.5
20260905123503 31 292 1.6 6.4 0.00 0.00 0.00 57 1019.7
20260905123404 31 202 3.2 3.2 0.00 0.00 0.00 57 1019.4
20260905123304 31 112 6.4 12.9 0.00 0.00 0.00 57 1019.6
20260905123204 31 292 3.2 6.4 0.00 0.00 0.00 58 1019.7
20260905123103 31 90 1.6 3.2 0.00 0.00 0.00 59 1019.5
20260905123003 31 135 1.6 3.2 0.00 0.00 0.00 59 1019.6
20260905122903 31 45 6.4 11.3 0.00 0.00 0.00 58 1019.8
20260905122804 31 270 9.7 14.5 0.00 0.00 0.00 58 1019.6
20260905122703 31 292 9.7 12.9 0.00 0.00 0.00 57 1019.8
20260905122603 31 292 6.4 9.7 0.00 0.00 0.00 57 1019.7
20260905122503 31 292 9.7 17.7 0.00 0.00 0.00 57 1019.6
20260905122403 31 270 3.2 12.9 0.00 0.00 0.00 58 1019.9
20260905122306 31 90 3.2 3.2 0.00 0.00 0.00 58 1019.6
20260905122203 31 68 6.4 14.5 0.00 0.00 0.00 59 1019.7
20260905122104 30 292 3.2 12.9 0.00 0.00 0.00 59 1019.6
20260905122004 30 292 6.4 11.3 0.00 0.00 0.00 58 1019.6
20260905121903 30 270 12.9 14.5 0.00 0.00 0.00 58 1019.8
20260905121805 31 248 11.3 17.7 0.00 0.00 0.00 57 1019.6
20260905121704 31 292 8.0 12.9 0.00 0.00 0.00 57 1019.8
20260905121604 31 292 11.3 17.7 0.00 0.00 0.00 56 1019.7
20260905121504 31 315 1.6 3.2 0.00 0.00 0.00 57 1019.8
20260905121404 31 90 0.0 3.2 0.00 0.00 0.00 57 1019.7
20260905121304 31 248 3.2 6.4 0.00 0.00 0.00 57 1019.7
20260905121203 31 270 6.4 12.9 0.00 0.00 0.00 56 1019.4
20260905121103 31 292 6.4 12.9 0.00 0.00 0.00 57 1019.6
20260905121003 31 292 4.8 17.7 0.00 0.00 0.00 56 1019.7
20260905120904 31 90 1.6 6.4 0.00 0.00 0.00 57 1019.7
20260905120804 31 90 4.8 6.4 0.00 0.00 0.00 56 1019.6
20260905120703 31 292 1.6 6.4 0.00 0.00 0.00 57 1019.8
20260905120603 31 180 6.4 12.9 0.00 0.00 0.00 57 1019.7
20260905120503 31 315 11.3 17.7 0.00 0.00 0.00 56 1019.9
20260905120403 31 270 11.3 17.7 0.00 0.00 0.00 57 1019.6
20260905120303 31 270 3.2 6.4 0.00 0.00 0.00 58 1019.9
20260905120204 31 315 4.8 12.9 0.00 0.00 0.00 58 1019.8
20260905120103 31 315 4.8 12.9 0.00 0.00 0.00 58 1019.8
20260905120004 31 315 4.8 12.9 0.00 0.00 0.00 58 1019.9
20260905115904 31 0 9.7 17.7 0.00 0.00 0.00 57 1019.7
20260905115804 31 270 6.4 14.5 0.00 0.00 0.00 57 1019.7
20260905115704 31 270 6.4 14.5 0.00 0.00 0.00 57 1019.9
20260905115604 31 292 9.7 17.7 0.00 0.00 0.00 56 1019.9
20260905115504 31 90 3.2 6.4 0.00 0.00 0.00 57 1019.9
20260905115404 31 68 9.7 17.7 0.00 0.00 0.00 56 1019.8
20260905115306 31 292 6.4 20.9 0.00 0.00 0.00 56 1019.8
20260905115204 31 90 3.2 11.3 0.00 0.00 0.00 57 1019.9
20260905115104 31 22 4.8 9.7 0.00 0.00 0.00 56 1019.8
20260905115003 31 270 3.2 3.2 0.00 0.00 0.00 57 1019.8
20260905114904 31 90 3.2 6.4 0.00 0.00 0.00 56 1019.9
20260905114804 31 68 6.4 17.7 0.00 0.00 0.00 57 1019.8
20260905114704 31 90 1.6 3.2 0.00 0.00 0.00 58 1019.6
20260905114603 31 45 3.2 6.4 0.00 0.00 0.00 58 1020.0
20260905114503 31 68 1.6 3.2 0.00 0.00 0.00 58 1020.2
20260905114404 31 225 6.4 14.5 0.00 0.00 0.00 59 1019.9
20260905114303 31 292 3.2 11.3 0.00 0.00 0.00 58 1020.0
20260905114203 31 90 1.6 3.2 0.00 0.00 0.00 58 1019.8
20260905114104 31 158 1.6 6.4 0.00 0.00 0.00 58 1019.7
20260905114004 31 112 1.6 3.2 0.00 0.00 0.00 59 1020.0
20260905113905 30 90 1.6 3.2 0.00 0.00 0.00 59 1019.8
20260905113804 30 45 3.2 6.4 0.00 0.00 0.00 59 1019.9
20260905113704 30 270 3.2 9.7 0.00 0.00 0.00 60 1020.0
20260905113604 30 292 11.3 17.7 0.00 0.00 0.00 60 1020.0
20260905113503 30 270 14.5 24.1 0.00 0.00 0.00 59 1019.8
20260905113404 31 292 12.9 20.9 0.00 0.00 0.00 57 1020.0
20260905113305 31 292 12.9 20.9 0.00 0.00 0.00 57 1019.9
20260905113204 31 292 12.9 20.9 0.00 0.00 0.00 57 1020.0
20260905113104 31 338 1.6 3.2 0.00 0.00 0.00 58 1020.0
20260905113004 31 90 3.2 9.7 0.00 0.00 0.00 58 1020.1
20260905112903 31 22 4.8 9.7 0.00 0.00 0.00 58 1020.1
20260905112804 31 225 6.4 17.7 0.00 0.00 0.00 58 1019.9
20260905112704 31 68 3.2 6.4 0.00 0.00 0.00 58 1020.1
20260905112604 31 225 9.7 17.7 0.00 0.00 0.00 57 1019.9
20260905112504 31 292 3.2 11.3 0.00 0.00 0.00 56 1019.8
20260905112403 31 68 1.6 3.2 0.00 0.00 0.00 58 1020.0
20260905112305 30 68 4.8 11.3 0.00 0.00 0.00 59 1020.0
20260905112204 30 315 6.4 17.7 0.00 0.00 0.00 59 1020.2
20260905112105 30 292 9.7 17.7 0.00 0.00 0.00 60 1020.1
20260905112005 30 315 9.7 14.5 0.00 0.00 0.00 60 1019.9
20260905111904 30 292 6.4 12.9 0.00 0.00 0.00 60 1020.0
20260905111804 30 292 6.4 17.7 0.00 0.00 0.00 60 1020.0
20260905111704 30 135 4.8 11.3 0.00 0.00 0.00 61 1019.9
20260905111604 30 292 3.2 6.4 0.00 0.00 0.00 61 1019.9
20260905111504 30 292 12.9 17.7 0.00 0.00 0.00 60 1020.1
20260905111405 30 248 9.7 12.9 0.00 0.00 0.00 60 1019.9
20260905111304 30 225 6.4 11.3 0.00 0.00 0.00 59 1020.0
20260905111204 30 225 6.4 11.3 0.00 0.00 0.00 58 1020.0
20260905111104 30 270 9.7 17.7 0.00 0.00 0.00 59 1020.1
20260905111004 30 315 3.2 11.3 0.00 0.00 0.00 60 1020.1
20260905110904 30 292 4.8 9.7 0.00 0.00 0.00 61 1020.1
20260905110804 30 112 1.6 3.2 0.00 0.00 0.00 62 1020.1
20260905110704 30 270 11.3 14.5 0.00 0.00 0.00 62 1020.1
20260905110603 30 292 9.7 14.5 0.00 0.00 0.00 61 1020.1
20260905110503 30 292 12.9 20.9 0.00 0.00 0.00 60 1020.1
20260905110404 30 315 12.9 17.7 0.00 0.00 0.00 60 1020.0
20260905110303 31 68 3.2 9.7 0.00 0.00 0.00 60 1019.8
20260905110203 31 68 3.2 9.7 0.00 0.00 0.00 60 1019.9
20260905110004 31 180 4.8 12.9 0.00 0.00 0.00 60 1020.0
20260905105903 30 68 1.6 3.2 0.00 0.00 0.00 61 1020.0
20260905105803 30 90 3.2 6.4 0.00 0.00 0.00 61 1020.2
20260905105703 30 45 3.2 9.7 0.00 0.00 0.00 62 1020.1
20260905105603 30 292 3.2 14.5 0.00 0.00 0.00 61 1020.1
20260905105503 30 292 6.4 11.3 0.00 0.00 0.00 61 1019.9
20260905105404 30 248 9.7 11.3 0.00 0.00 0.00 61 1019.9
20260905105306 30 270 6.4 9.7 0.00 0.00 0.00 62 1019.9
20260905105204 30 292 3.2 6.4 0.00 0.00 0.00 63 1019.8
20260905105104 30 0 9.7 14.5 0.00 0.00 0.00 63 1019.7
20260905105004 30 292 4.8 11.3 0.00 0.00 0.00 63 1019.8
20260905104904 30 248 8.0 12.9 0.00 0.00 0.00 62 1019.8
20260905104804 30 292 8.0 12.9 0.00 0.00 0.00 62 1019.9
20260905104704 30 270 6.4 11.3 0.00 0.00 0.00 61 1020.0
20260905104604 30 90 4.8 14.5 0.00 0.00 0.00 62 1020.0
20260905104504 30 292 9.7 17.7 0.00 0.00 0.00 61 1020.1